Time,TemperatureF,DewpointF,PressureIn,WindDirection,WindDirectionDegrees,WindSpeedMPH,WindSpeedGustMPH,Humidity,HourlyPrecipIn,Conditions,Clouds,dailyrainin,SoftwareType,DateUTC
2013-08-12 00:00:00,75.2,73.0,30.02,SW,235,0.0,0.0,93,0.00,,,0.00,Wunderground v.1.15,2013-08-12 04:00:00,
2013-08-12 00:01:00,75.2,73.0,30.02,SW,235,0.0,0.0,93,0.00,,,0.00,Wunderground v.1.15,2013-08-12 04:01:00,
2013-08-12 00:02:00,75.2,73.0,30.02,SW,235,0.0,0.0,93,0.00,,,0.00,Wunderground v.1.15,2013-08-12 04:02:00,
2013-08-12 00:03:00,75.2,73.0,30.02,SW,235,0.0,0.0,93,0.00,,,0.00,Wunderground v.1.15,2013-08-12 04:03:00,
2013-08-12 00:06:00,75.1,72.9,30.02,SW,235,0.0,0.0,93,0.00,,,0.00,Wunderground v.1.15,2013-08-12 04:06:00,
2013-08-12 00:07:00,75.1,72.9,30.02,SW,235,0.0,0.0,93,0.00,,,0.00,Wunderground v.1.15,2013-08-12 04:07:00,
2013-08-12 00:09:00,75.0,72.8,30.02,SW,235,0.0,0.0,93,0.00,,,0.00,Wunderground v.1.15,2013-08-12 04:09:00,
2013-08-12 00:13:00,74.9,73.1,30.03,SW,235,0.0,0.0,94,0.00,,,0.00,Wunderground v.1.15,2013-08-12 04:13:00,
2013-08-12 00:15:00,74.9,73.1,30.03,SW,235,0.0,0.0,94,0.00,,,0.00,Wunderground v.1.15,2013-08-12 04:15:00,
2013-08-12 00:16:00,74.9,73.1,30.03,SW,235,0.0,0.0,94,0.00,,,0.00,Wunderground v.1.15,2013-08-12 04:16:00,
2013-08-12 00:18:00,74.8,73.0,30.03,SW,235,0.0,0.0,94,0.00,,,0.00,Wunderground v.1.15,2013-08-12 04:18:00,
2013-08-12 00:19:00,74.8,73.0,30.03,SW,235,0.0,0.0,94,0.00,,,0.00,Wunderground v.1.15,2013-08-12 04:19:00,
2013-08-12 00:20:00,74.8,73.3,30.03,SW,235,0.0,0.0,95,0.00,,,0.00,Wunderground v.1.15,2013-08-12 04:20:00,
2013-08-12 00:22:00,74.7,73.2,30.03,SW,235,0.0,0.0,95,0.00,,,0.00,Wunderground v.1.15,2013-08-12 04:22:00,
2013-08-12 00:24:00,74.6,73.1,30.03,SW,235,0.0,0.0,95,0.00,,,0.00,Wunderground v.1.15,2013-08-12 04:24:00,
2013-08-12 00:28:00,74.5,73.0,30.04,SW,235,0.0,0.0,95,0.00,,,0.00,Wunderground v.1.15,2013-08-12 04:28:00,
2013-08-12 00:29:00,74.4,72.9,30.03,SW,235,0.0,0.0,95,0.00,,,0.00,Wunderground v.1.15,2013-08-12 04:29:00,
2013-08-12 00:30:00,74.4,72.9,30.03,SW,235,0.0,0.0,95,0.00,,,0.00,Wunderground v.1.15,2013-08-12 04:30:00,
2013-08-12 00:31:00,74.3,72.8,30.04,SW,235,0.0,0.0,95,0.00,,,0.00,Wunderground v.1.15,2013-08-12 04:31:00,
2013-08-12 00:35:00,74.2,72.7,30.03,SW,235,0.0,0.0,95,0.00,,,0.00,Wunderground v.1.15,2013-08-12 04:35:00,
2013-08-12 00:36:00,74.2,73.0,30.03,SW,235,0.0,0.0,96,0.00,,,0.00,Wunderground v.1.15,2013-08-12 04:36:00,
2013-08-12 00:38:00,74.2,73.0,30.03,SW,235,0.0,0.0,96,0.00,,,0.00,Wunderground v.1.15,2013-08-12 04:38:00,
2013-08-12 00:39:00,74.2,73.0,30.03,SW,235,0.0,0.0,96,0.00,,,0.00,Wunderground v.1.15,2013-08-12 04:39:00,
2013-08-12 00:40:00,74.2,73.0,30.03,SW,235,0.0,0.0,96,0.00,,,0.00,Wunderground v.1.15,2013-08-12 04:40:00,
2013-08-12 00:43:00,74.1,72.9,30.03,SW,235,0.0,0.0,96,0.00,,,0.00,Wunderground v.1.15,2013-08-12 04:43:00,
2013-08-12 00:45:00,74.0,72.8,30.03,SW,235,0.0,0.0,96,0.00,,,0.00,Wunderground v.1.15,2013-08-12 04:45:00,
2013-08-12 00:47:00,74.0,72.8,30.03,SW,235,0.0,0.0,96,0.00,,,0.00,Wunderground v.1.15,2013-08-12 04:47:00,
2013-08-12 00:50:00,73.9,72.7,30.03,SW,235,0.0,0.0,96,0.00,,,0.00,Wunderground v.1.15,2013-08-12 04:50:00,
2013-08-12 00:53:00,73.7,72.5,30.03,SW,235,0.0,0.0,96,0.00,,,0.00,Wunderground v.1.15,2013-08-12 04:53:00,
2013-08-12 00:54:00,73.7,72.5,30.03,SW,235,0.0,0.0,96,0.00,,,0.00,Wunderground v.1.15,2013-08-12 04:54:00,
2013-08-12 00:55:00,73.7,72.5,30.03,SW,235,0.0,0.0,96,0.00,,,0.00,Wunderground v.1.15,2013-08-12 04:55:00,
2013-08-12 00:58:00,73.6,72.4,30.03,SW,235,0.0,0.0,96,0.00,,,0.00,Wunderground v.1.15,2013-08-12 04:58:00,
2013-08-12 00:59:00,73.6,72.4,30.03,SW,235,0.0,0.0,96,0.00,,,0.00,Wunderground v.1.15,2013-08-12 04:59:00,
2013-08-12 01:01:00,73.6,72.4,30.03,SW,235,0.0,0.0,96,0.00,,,0.00,Wunderground v.1.15,2013-08-12 05:01:00,
2013-08-12 01:04:00,73.5,72.3,30.03,SW,235,0.0,0.0,96,0.00,,,0.00,Wunderground v.1.15,2013-08-12 05:04:00,
2013-08-12 01:05:00,73.5,72.3,30.03,SW,235,0.0,0.0,96,0.00,,,0.00,Wunderground v.1.15,2013-08-12 05:05:00,
2013-08-12 01:07:00,73.5,72.3,30.03,SW,235,0.0,0.0,96,0.00,,,0.00,Wunderground v.1.15,2013-08-12 05:07:00,
2013-08-12 01:08:00,73.4,72.2,30.03,SW,235,0.0,0.0,96,0.00,,,0.00,Wunderground v.1.15,2013-08-12 05:08:00,
2013-08-12 01:12:00,73.3,72.1,30.03,SW,235,0.0,0.0,96,0.00,,,0.00,Wunderground v.1.15,2013-08-12 05:12:00,
2013-08-12 01:13:00,73.3,72.1,30.03,SW,235,0.0,0.0,96,0.00,,,0.00,Wunderground v.1.15,2013-08-12 05:13:00,
2013-08-12 01:14:00,73.3,72.4,30.03,SW,235,0.0,0.0,97,0.00,,,0.00,Wunderground v.1.15,2013-08-12 05:14:00,
2013-08-12 01:19:00,73.1,72.2,30.03,SW,235,0.0,0.0,97,0.00,,,0.00,Wunderground v.1.15,2013-08-12 05:19:00,
2013-08-12 01:21:00,73.0,72.1,30.03,SW,235,0.0,0.0,97,0.00,,,0.00,Wunderground v.1.15,2013-08-12 05:21:00,
2013-08-12 01:22:00,73.0,72.1,30.03,SW,235,0.0,0.0,97,0.00,,,0.00,Wunderground v.1.15,2013-08-12 05:22:00,
2013-08-12 01:24:00,73.0,72.1,30.03,SW,235,0.0,0.0,97,0.00,,,0.00,Wunderground v.1.15,2013-08-12 05:24:00,
2013-08-12 01:27:00,72.8,71.9,30.02,SW,235,0.0,0.0,97,0.00,,,0.00,Wunderground v.1.15,2013-08-12 05:27:00,
2013-08-12 01:29:00,72.9,72.0,30.02,SW,235,0.0,0.0,97,0.00,,,0.00,Wunderground v.1.15,2013-08-12 05:29:00,
2013-08-12 01:32:00,72.8,72.2,30.02,SW,235,0.0,0.0,98,0.00,,,0.00,Wunderground v.1.15,2013-08-12 05:32:00,
2013-08-12 01:33:00,72.7,72.1,30.02,SW,235,0.0,0.0,98,0.00,,,0.00,Wunderground v.1.15,2013-08-12 05:33:00,
2013-08-12 01:34:00,72.8,72.2,30.02,SW,235,0.0,0.0,98,0.00,,,0.00,Wunderground v.1.15,2013-08-12 05:34:00,
2013-08-12 01:37:00,72.8,72.2,30.02,SW,235,0.0,0.0,98,0.00,,,0.00,Wunderground v.1.15,2013-08-12 05:37:00,
2013-08-12 01:38:00,72.8,72.2,30.02,SW,235,0.0,0.0,98,0.00,,,0.00,Wunderground v.1.15,2013-08-12 05:38:00,
2013-08-12 01:39:00,72.8,72.2,30.02,SW,235,0.0,0.0,98,0.00,,,0.00,Wunderground v.1.15,2013-08-12 05:39:00,
2013-08-12 01:41:00,72.9,72.3,30.02,SW,235,0.0,0.0,98,0.00,,,0.00,Wunderground v.1.15,2013-08-12 05:41:00,
2013-08-12 01:42:00,72.9,72.3,30.02,SW,235,0.0,0.0,98,0.00,,,0.00,Wunderground v.1.15,2013-08-12 05:42:00,
2013-08-12 01:45:00,72.9,72.3,30.02,SW,235,0.0,0.0,98,0.00,,,0.00,Wunderground v.1.15,2013-08-12 05:45:00,
2013-08-12 01:47:00,72.9,72.0,30.02,SW,235,0.0,0.0,97,0.00,,,0.00,Wunderground v.1.15,2013-08-12 05:47:00,
2013-08-12 01:48:00,72.9,72.0,30.02,SW,235,0.0,0.0,97,0.00,,,0.00,Wunderground v.1.15,2013-08-12 05:48:00,
2013-08-12 01:53:00,72.9,72.0,30.02,SW,235,0.0,0.0,97,0.00,,,0.00,Wunderground v.1.15,2013-08-12 05:53:00,
2013-08-12 01:54:00,72.9,72.0,30.02,SW,235,0.0,0.0,97,0.00,,,0.00,Wunderground v.1.15,2013-08-12 05:54:00,
2013-08-12 01:55:00,72.9,72.0,30.02,SW,235,0.0,0.0,97,0.00,,,0.00,Wunderground v.1.15,2013-08-12 05:55:00,
2013-08-12 01:56:00,72.9,72.0,30.02,SW,235,0.0,0.0,97,0.00,,,0.00,Wunderground v.1.15,2013-08-12 05:56:00,
2013-08-12 01:59:00,72.9,72.0,30.01,SW,235,0.0,0.0,97,0.00,,,0.00,Wunderground v.1.15,2013-08-12 05:59:00,
2013-08-12 02:00:00,72.8,71.9,30.01,SW,235,0.0,0.0,97,0.00,,,0.00,Wunderground v.1.15,2013-08-12 06:00:00,
2013-08-12 02:01:00,72.8,71.9,30.01,SW,235,0.0,0.0,97,0.00,,,0.00,Wunderground v.1.15,2013-08-12 06:01:00,
2013-08-12 02:04:00,72.8,71.9,30.01,SW,235,0.0,0.0,97,0.00,,,0.00,Wunderground v.1.15,2013-08-12 06:04:00,
2013-08-12 02:05:00,72.7,71.8,30.01,SW,235,0.0,0.0,97,0.00,,,0.00,Wunderground v.1.15,2013-08-12 06:05:00,
2013-08-12 02:06:00,72.7,71.8,30.01,SW,235,0.0,0.0,97,0.00,,,0.00,Wunderground v.1.15,2013-08-12 06:06:00,
2013-08-12 02:07:00,72.6,71.7,30.01,SW,235,0.0,0.0,97,0.00,,,0.00,Wunderground v.1.15,2013-08-12 06:07:00,
2013-08-12 02:09:00,72.6,71.7,30.01,SW,235,0.0,0.0,97,0.00,,,0.00,Wunderground v.1.15,2013-08-12 06:09:00,
2013-08-12 02:10:00,72.5,71.6,30.01,SW,235,0.0,0.0,97,0.00,,,0.00,Wunderground v.1.15,2013-08-12 06:10:00,
2013-08-12 02:11:00,72.5,71.6,30.01,SW,235,0.0,0.0,97,0.00,,,0.00,Wunderground v.1.15,2013-08-12 06:11:00,
2013-08-12 02:12:00,72.5,71.6,30.01,SW,235,0.0,0.0,97,0.00,,,0.00,Wunderground v.1.15,2013-08-12 06:12:00,
2013-08-12 02:14:00,72.4,71.5,30.01,SW,235,0.0,0.0,97,0.00,,,0.00,Wunderground v.1.15,2013-08-12 06:14:00,
2013-08-12 02:15:00,72.4,71.5,30.01,SW,235,0.0,0.0,97,0.00,,,0.00,Wunderground v.1.15,2013-08-12 06:15:00,
2013-08-12 02:16:00,72.3,71.4,30.01,SW,235,0.0,0.0,97,0.00,,,0.00,Wunderground v.1.15,2013-08-12 06:16:00,
2013-08-12 02:17:00,72.3,71.4,30.01,SW,235,0.0,0.0,97,0.00,,,0.00,Wunderground v.1.15,2013-08-12 06:17:00,
2013-08-12 02:20:00,72.3,71.4,30.01,SW,235,0.0,0.0,97,0.00,,,0.00,Wunderground v.1.15,2013-08-12 06:20:00,
2013-08-12 02:21:00,72.3,71.4,30.01,SW,235,0.0,0.0,97,0.00,,,0.00,Wunderground v.1.15,2013-08-12 06:21:00,
2013-08-12 02:22:00,72.3,71.4,30.01,SW,235,0.0,0.0,97,0.00,,,0.00,Wunderground v.1.15,2013-08-12 06:22:00,
2013-08-12 02:25:00,72.2,71.6,30.01,SW,235,0.0,0.0,98,0.00,,,0.00,Wunderground v.1.15,2013-08-12 06:25:00,
2013-08-12 02:26:00,72.2,71.6,30.01,SW,235,0.0,0.0,98,0.00,,,0.00,Wunderground v.1.15,2013-08-12 06:26:00,
2013-08-12 02:27:00,72.3,71.7,30.01,SW,235,0.0,0.0,98,0.00,,,0.00,Wunderground v.1.15,2013-08-12 06:27:00,
2013-08-12 02:30:00,72.3,71.7,30.01,WSW,243,0.0,0.0,98,0.00,,,0.00,Wunderground v.1.15,2013-08-12 06:30:00,
2013-08-12 02:31:00,72.3,71.7,30.01,WSW,243,0.0,0.0,98,0.00,,,0.00,Wunderground v.1.15,2013-08-12 06:31:00,
2013-08-12 02:32:00,72.2,71.6,30.01,WSW,243,0.0,0.0,98,0.00,,,0.00,Wunderground v.1.15,2013-08-12 06:32:00,
2013-08-12 02:35:00,72.2,71.6,30.01,WSW,243,0.0,0.0,98,0.00,,,0.00,Wunderground v.1.15,2013-08-12 06:35:00,
2013-08-12 02:36:00,72.2,71.6,30.01,WSW,243,0.0,0.0,98,0.00,,,0.00,Wunderground v.1.15,2013-08-12 06:36:00,
2013-08-12 02:37:00,72.2,71.6,30.01,WSW,243,0.0,0.0,98,0.00,,,0.00,Wunderground v.1.15,2013-08-12 06:37:00,
2013-08-12 02:38:00,72.2,71.6,30.01,WSW,243,0.0,0.0,98,0.00,,,0.00,Wunderground v.1.15,2013-08-12 06:38:00,
2013-08-12 02:40:00,72.2,71.6,30.01,SW,236,0.0,0.0,98,0.00,,,0.00,Wunderground v.1.15,2013-08-12 06:40:00,
2013-08-12 02:41:00,72.2,71.6,30.01,SW,236,0.0,0.0,98,0.00,,,0.00,Wunderground v.1.15,2013-08-12 06:41:00,
2013-08-12 02:42:00,72.2,71.6,30.01,SW,236,0.0,0.0,98,0.00,,,0.00,Wunderground v.1.15,2013-08-12 06:42:00,
2013-08-12 02:43:00,72.1,71.5,30.01,SW,236,0.0,0.0,98,0.00,,,0.00,Wunderground v.1.15,2013-08-12 06:43:00,
2013-08-12 02:45:00,72.1,71.5,30.01,SW,236,0.0,0.0,98,0.00,,,0.00,Wunderground v.1.15,2013-08-12 06:45:00,
2013-08-12 02:47:00,72.1,71.5,30.01,SW,229,0.0,0.0,98,0.00,,,0.00,Wunderground v.1.15,2013-08-12 06:47:00,
2013-08-12 02:48:00,72.1,71.5,30.01,SW,229,0.0,0.0,98,0.00,,,0.00,Wunderground v.1.15,2013-08-12 06:48:00,
2013-08-12 02:50:00,72.0,71.4,30.01,SW,229,0.0,0.0,98,0.00,,,0.00,Wunderground v.1.15,2013-08-12 06:50:00,
2013-08-12 02:52:00,72.0,71.4,30.01,SW,229,0.0,0.0,98,0.00,,,0.00,Wunderground v.1.15,2013-08-12 06:52:00,
2013-08-12 02:53:00,72.0,71.4,30.01,SW,229,0.0,0.0,98,0.00,,,0.00,Wunderground v.1.15,2013-08-12 06:53:00,
2013-08-12 02:56:00,72.0,71.4,30.01,SW,229,0.0,0.0,98,0.00,,,0.00,Wunderground v.1.15,2013-08-12 06:56:00,
2013-08-12 02:57:00,72.0,71.4,30.01,SW,229,0.0,0.0,98,0.00,,,0.00,Wunderground v.1.15,2013-08-12 06:57:00,
2013-08-12 02:58:00,72.0,71.4,30.01,SW,229,0.0,0.0,98,0.00,,,0.00,Wunderground v.1.15,2013-08-12 06:58:00,
2013-08-12 03:01:00,71.9,71.3,30.01,SW,235,0.0,0.0,98,0.00,,,0.00,Wunderground v.1.15,2013-08-12 07:01:00,
2013-08-12 03:03:00,71.9,71.3,30.01,SW,233,0.0,0.0,98,0.00,,,0.00,Wunderground v.1.15,2013-08-12 07:03:00,
2013-08-12 03:04:00,71.8,71.2,30.01,SW,232,0.0,0.0,98,0.00,,,0.00,Wunderground v.1.15,2013-08-12 07:04:00,
2013-08-12 03:06:00,71.8,71.2,30.01,SW,235,1.0,2.0,98,0.00,,,0.00,Wunderground v.1.15,2013-08-12 07:06:00,
2013-08-12 03:08:00,71.8,71.2,30.01,SW,235,1.0,2.0,98,0.00,,,0.00,Wunderground v.1.15,2013-08-12 07:08:00,
2013-08-12 03:09:00,71.8,71.2,30.01,SW,235,1.0,2.0,98,0.00,,,0.00,Wunderground v.1.15,2013-08-12 07:09:00,
2013-08-12 03:11:00,71.8,71.2,30.01,WSW,243,1.0,1.0,98,0.00,,,0.00,Wunderground v.1.15,2013-08-12 07:11:00,
2013-08-12 03:13:00,71.8,71.2,30.01,WSW,240,1.0,2.0,98,0.00,,,0.00,Wunderground v.1.15,2013-08-12 07:13:00,
2013-08-12 03:14:00,71.8,71.2,30.01,WSW,253,0.0,2.0,98,0.00,,,0.00,Wunderground v.1.15,2013-08-12 07:14:00,
2013-08-12 03:16:00,71.8,71.2,30.01,WSW,247,0.0,2.0,98,0.00,,,0.00,Wunderground v.1.15,2013-08-12 07:16:00,
2013-08-12 03:18:00,71.8,71.2,30.01,WSW,243,1.0,2.0,98,0.00,,,0.00,Wunderground v.1.15,2013-08-12 07:18:00,
2013-08-12 03:19:00,71.8,71.2,30.01,SW,235,1.0,2.0,98,0.00,,,0.00,Wunderground v.1.15,2013-08-12 07:19:00,
2013-08-12 03:20:00,71.9,71.3,30.01,SW,235,0.0,1.0,98,0.00,,,0.00,Wunderground v.1.15,2013-08-12 07:20:00,
2013-08-12 03:21:00,71.9,71.3,30.01,SW,229,1.0,2.0,98,0.00,,,0.00,Wunderground v.1.15,2013-08-12 07:21:00,
2013-08-12 03:23:00,71.9,71.3,30.01,SW,232,1.0,2.0,98,0.00,,,0.00,Wunderground v.1.15,2013-08-12 07:23:00,
2013-08-12 03:24:00,71.8,71.2,30.01,SW,232,0.0,2.0,98,0.00,,,0.00,Wunderground v.1.15,2013-08-12 07:24:00,
2013-08-12 03:25:00,71.9,71.3,30.01,SW,232,0.0,2.0,98,0.00,,,0.00,Wunderground v.1.15,2013-08-12 07:25:00,
2013-08-12 03:26:00,71.8,71.2,30.01,SW,232,0.0,2.0,98,0.00,,,0.00,Wunderground v.1.15,2013-08-12 07:26:00,
2013-08-12 03:28:00,71.8,71.2,30.01,SW,232,0.0,2.0,98,0.00,,,0.00,Wunderground v.1.15,2013-08-12 07:28:00,
2013-08-12 03:30:00,71.8,71.2,30.01,SW,232,0.0,1.0,98,0.00,,,0.00,Wunderground v.1.15,2013-08-12 07:30:00,
2013-08-12 03:31:00,71.8,71.2,30.01,SW,232,0.0,1.0,98,0.00,,,0.00,Wunderground v.1.15,2013-08-12 07:31:00,
2013-08-12 03:33:00,71.8,71.2,30.01,SW,232,0.0,1.0,98,0.00,,,0.00,Wunderground v.1.15,2013-08-12 07:33:00,
2013-08-12 03:35:00,71.8,71.2,30.01,SW,231,0.0,1.0,98,0.00,,,0.00,Wunderground v.1.15,2013-08-12 07:35:00,
2013-08-12 03:36:00,71.8,71.2,30.01,SW,232,0.0,1.0,98,0.00,,,0.00,Wunderground v.1.15,2013-08-12 07:36:00,
2013-08-12 03:38:00,71.8,71.2,30.01,SW,232,1.0,1.0,98,0.00,,,0.00,Wunderground v.1.15,2013-08-12 07:38:00,
2013-08-12 03:40:00,71.8,71.2,30.01,SW,232,1.0,1.0,98,0.00,,,0.00,Wunderground v.1.15,2013-08-12 07:40:00,
2013-08-12 03:41:00,71.8,71.2,30.01,SW,232,1.0,1.0,98,0.00,,,0.00,Wunderground v.1.15,2013-08-12 07:41:00,
2013-08-12 03:42:00,71.7,71.1,30.00,SW,232,1.0,1.0,98,0.00,,,0.00,Wunderground v.1.15,2013-08-12 07:42:00,
2013-08-12 03:44:00,71.7,71.1,30.00,SW,232,0.0,1.0,98,0.00,,,0.00,Wunderground v.1.15,2013-08-12 07:44:00,
2013-08-12 03:45:00,71.7,71.1,30.01,SW,232,0.0,1.0,98,0.00,,,0.00,Wunderground v.1.15,2013-08-12 07:45:00,
2013-08-12 03:46:00,71.7,71.1,30.01,SW,232,0.0,1.0,98,0.00,,,0.00,Wunderground v.1.15,2013-08-12 07:46:00,
2013-08-12 03:47:00,71.7,71.1,30.01,SW,232,0.0,1.0,98,0.00,,,0.00,Wunderground v.1.15,2013-08-12 07:47:00,
2013-08-12 03:49:00,71.6,71.0,30.01,SW,232,0.0,1.0,98,0.00,,,0.00,Wunderground v.1.15,2013-08-12 07:49:00,
2013-08-12 03:50:00,71.6,71.0,30.01,SW,232,0.0,0.0,98,0.00,,,0.00,Wunderground v.1.15,2013-08-12 07:50:00,
2013-08-12 03:51:00,71.6,71.0,30.01,SW,232,0.0,0.0,98,0.00,,,0.00,Wunderground v.1.15,2013-08-12 07:51:00,
2013-08-12 03:52:00,71.6,71.0,30.01,SW,232,0.0,0.0,98,0.00,,,0.00,Wunderground v.1.15,2013-08-12 07:52:00,
2013-08-12 03:54:00,71.6,71.0,30.01,SW,232,0.0,0.0,98,0.00,,,0.00,Wunderground v.1.15,2013-08-12 07:54:00,
2013-08-12 03:55:00,71.5,70.9,30.01,SW,232,0.0,0.0,98,0.00,,,0.00,Wunderground v.1.15,2013-08-12 07:55:00,
2013-08-12 03:56:00,71.5,70.9,30.01,SW,232,0.0,0.0,98,0.00,,,0.00,Wunderground v.1.15,2013-08-12 07:56:00,
2013-08-12 03:57:00,71.5,70.9,30.01,SW,232,0.0,0.0,98,0.00,,,0.00,Wunderground v.1.15,2013-08-12 07:57:00,
2013-08-12 03:59:00,71.4,70.8,30.01,SW,232,0.0,0.0,98,0.00,,,0.00,Wunderground v.1.15,2013-08-12 07:59:00,
2013-08-12 04:00:00,71.4,70.8,30.01,SW,232,0.0,0.0,98,0.00,,,0.00,Wunderground v.1.15,2013-08-12 08:00:00,
2013-08-12 04:01:00,71.4,70.8,30.01,SW,232,0.0,0.0,98,0.00,,,0.00,Wunderground v.1.15,2013-08-12 08:01:00,
2013-08-12 04:02:00,71.3,70.7,30.01,SW,232,0.0,0.0,98,0.00,,,0.00,Wunderground v.1.15,2013-08-12 08:02:00,
2013-08-12 04:04:00,71.3,70.7,30.01,SW,232,0.0,0.0,98,0.00,,,0.00,Wunderground v.1.15,2013-08-12 08:04:00,
2013-08-12 04:06:00,71.2,70.6,30.01,SW,232,0.0,0.0,98,0.00,,,0.00,Wunderground v.1.15,2013-08-12 08:06:00,
2013-08-12 04:07:00,71.2,70.6,30.01,SW,232,0.0,0.0,98,0.00,,,0.00,Wunderground v.1.15,2013-08-12 08:07:00,
2013-08-12 04:09:00,71.0,70.4,30.01,SW,232,0.0,0.0,98,0.00,,,0.00,Wunderground v.1.15,2013-08-12 08:09:00,
2013-08-12 04:11:00,71.0,70.4,30.01,SW,232,0.0,0.0,98,0.00,,,0.00,Wunderground v.1.15,2013-08-12 08:11:00,
2013-08-12 04:12:00,71.0,70.4,30.01,SW,232,0.0,0.0,98,0.00,,,0.00,Wunderground v.1.15,2013-08-12 08:12:00,
2013-08-12 04:13:00,71.0,70.4,30.01,SW,232,0.0,0.0,98,0.00,,,0.00,Wunderground v.1.15,2013-08-12 08:13:00,
2013-08-12 04:14:00,71.0,70.4,30.01,SW,232,0.0,0.0,98,0.00,,,0.00,Wunderground v.1.15,2013-08-12 08:14:00,
2013-08-12 04:16:00,71.0,70.4,30.01,SW,232,0.0,0.0,98,0.00,,,0.00,Wunderground v.1.15,2013-08-12 08:16:00,
2013-08-12 04:17:00,71.0,70.4,30.01,SW,232,0.0,0.0,98,0.00,,,0.00,Wunderground v.1.15,2013-08-12 08:17:00,
2013-08-12 04:18:00,71.0,70.4,30.01,SW,232,0.0,0.0,98,0.00,,,0.00,Wunderground v.1.15,2013-08-12 08:18:00,
2013-08-12 04:19:00,71.0,70.4,30.01,SW,232,0.0,0.0,98,0.00,,,0.00,Wunderground v.1.15,2013-08-12 08:19:00,
2013-08-12 04:21:00,71.0,70.4,30.01,SW,232,0.0,0.0,98,0.00,,,0.00,Wunderground v.1.15,2013-08-12 08:21:00,
2013-08-12 04:22:00,71.0,70.4,30.01,SW,231,0.0,0.0,98,0.00,,,0.00,Wunderground v.1.15,2013-08-12 08:22:00,
2013-08-12 04:24:00,71.0,70.7,30.01,SW,232,0.0,0.0,99,0.00,,,0.00,Wunderground v.1.15,2013-08-12 08:24:00,
2013-08-12 04:26:00,71.0,70.7,30.01,SW,232,0.0,0.0,99,0.00,,,0.00,Wunderground v.1.15,2013-08-12 08:26:00,
2013-08-12 04:27:00,71.0,70.7,30.01,SW,232,0.0,0.0,99,0.00,,,0.00,Wunderground v.1.15,2013-08-12 08:27:00,
2013-08-12 04:28:00,71.0,70.4,30.01,SW,232,0.0,0.0,98,0.00,,,0.00,Wunderground v.1.15,2013-08-12 08:28:00,
2013-08-12 04:29:00,70.9,70.3,30.01,SW,232,0.0,0.0,98,0.00,,,0.00,Wunderground v.1.15,2013-08-12 08:29:00,
2013-08-12 04:31:00,70.9,70.6,30.01,SW,232,0.0,0.0,99,0.00,,,0.00,Wunderground v.1.15,2013-08-12 08:31:00,
2013-08-12 04:32:00,70.9,70.6,30.01,SW,232,0.0,0.0,99,0.00,,,0.00,Wunderground v.1.15,2013-08-12 08:32:00,
2013-08-12 04:33:00,70.9,70.3,30.01,SW,232,0.0,0.0,98,0.00,,,0.00,Wunderground v.1.15,2013-08-12 08:33:00,
2013-08-12 04:35:00,70.9,70.6,30.01,SW,232,0.0,0.0,99,0.00,,,0.00,Wunderground v.1.15,2013-08-12 08:35:00,
2013-08-12 04:36:00,70.8,70.2,30.01,SW,232,0.0,0.0,98,0.00,,,0.00,Wunderground v.1.15,2013-08-12 08:36:00,
2013-08-12 04:37:00,70.8,70.2,30.01,SW,232,0.0,0.0,98,0.00,,,0.00,Wunderground v.1.15,2013-08-12 08:37:00,
2013-08-12 04:38:00,70.8,70.2,30.01,SW,232,0.0,0.0,98,0.00,,,0.00,Wunderground v.1.15,2013-08-12 08:38:00,
2013-08-12 04:40:00,70.7,70.1,30.01,SW,232,0.0,0.0,98,0.00,,,0.00,Wunderground v.1.15,2013-08-12 08:40:00,
2013-08-12 04:41:00,70.7,70.1,30.01,SW,232,0.0,0.0,98,0.00,,,0.00,Wunderground v.1.15,2013-08-12 08:41:00,
2013-08-12 04:42:00,70.6,70.0,30.01,SW,232,0.0,0.0,98,0.00,,,0.00,Wunderground v.1.15,2013-08-12 08:42:00,
2013-08-12 04:43:00,70.7,70.4,30.01,SW,232,0.0,0.0,99,0.00,,,0.00,Wunderground v.1.15,2013-08-12 08:43:00,
2013-08-12 04:45:00,70.7,70.4,30.01,SW,232,0.0,0.0,99,0.00,,,0.00,Wunderground v.1.15,2013-08-12 08:45:00,
2013-08-12 04:47:00,70.6,70.3,30.01,SW,232,0.0,0.0,99,0.00,,,0.00,Wunderground v.1.15,2013-08-12 08:47:00,
2013-08-12 04:49:00,70.6,70.3,30.01,SW,232,0.0,0.0,99,0.00,,,0.00,Wunderground v.1.15,2013-08-12 08:49:00,
2013-08-12 04:50:00,70.6,70.3,30.01,SW,232,0.0,0.0,99,0.00,,,0.00,Wunderground v.1.15,2013-08-12 08:50:00,
2013-08-12 04:51:00,70.6,70.3,30.01,SW,232,0.0,0.0,99,0.00,,,0.00,Wunderground v.1.15,2013-08-12 08:51:00,
2013-08-12 04:52:00,70.6,70.3,30.01,SW,232,0.0,0.0,99,0.00,,,0.00,Wunderground v.1.15,2013-08-12 08:52:00,
2013-08-12 04:54:00,70.5,70.2,30.01,SW,232,0.0,0.0,99,0.00,,,0.00,Wunderground v.1.15,2013-08-12 08:54:00,
2013-08-12 04:56:00,70.5,70.2,30.01,SW,232,0.0,0.0,99,0.00,,,0.00,Wunderground v.1.15,2013-08-12 08:56:00,
2013-08-12 04:57:00,70.5,70.2,30.01,SW,232,0.0,0.0,99,0.00,,,0.00,Wunderground v.1.15,2013-08-12 08:57:00,
2013-08-12 04:59:00,70.5,70.2,30.01,SW,232,0.0,0.0,99,0.00,,,0.00,Wunderground v.1.15,2013-08-12 08:59:00,
2013-08-12 05:00:00,70.5,70.2,30.01,SW,232,0.0,0.0,99,0.00,,,0.00,Wunderground v.1.15,2013-08-12 09:00:00,
2013-08-12 05:01:00,70.5,70.2,30.01,SW,232,0.0,0.0,99,0.00,,,0.00,Wunderground v.1.15,2013-08-12 09:01:00,
2013-08-12 05:03:00,70.4,70.1,30.01,SW,233,0.0,0.0,99,0.00,,,0.00,Wunderground v.1.15,2013-08-12 09:03:00,
2013-08-12 05:04:00,70.4,70.1,30.02,SW,233,0.0,0.0,99,0.00,,,0.00,Wunderground v.1.15,2013-08-12 09:04:00,
2013-08-12 05:05:00,70.4,70.1,30.02,SW,233,0.0,0.0,99,0.00,,,0.00,Wunderground v.1.15,2013-08-12 09:05:00,
2013-08-12 05:06:00,70.3,70.0,30.02,SW,232,0.0,0.0,99,0.00,,,0.00,Wunderground v.1.15,2013-08-12 09:06:00,
2013-08-12 05:08:00,70.3,70.0,30.02,SW,232,0.0,0.0,99,0.00,,,0.00,Wunderground v.1.15,2013-08-12 09:08:00,
2013-08-12 05:10:00,70.2,69.9,30.01,SW,232,0.0,0.0,99,0.00,,,0.00,Wunderground v.1.15,2013-08-12 09:10:00,
2013-08-12 05:11:00,70.1,69.8,30.01,SW,232,0.0,0.0,99,0.00,,,0.00,Wunderground v.1.15,2013-08-12 09:11:00,
2013-08-12 05:12:00,70.1,69.8,30.01,SW,232,0.0,0.0,99,0.00,,,0.00,Wunderground v.1.15,2013-08-12 09:12:00,
2013-08-12 05:13:00,70.1,69.8,30.01,SW,232,0.0,0.0,99,0.00,,,0.00,Wunderground v.1.15,2013-08-12 09:13:00,
2013-08-12 05:15:00,70.2,69.9,30.01,SW,232,0.0,0.0,99,0.00,,,0.00,Wunderground v.1.15,2013-08-12 09:15:00,
2013-08-12 05:16:00,70.1,69.8,30.01,SW,232,0.0,0.0,99,0.00,,,0.00,Wunderground v.1.15,2013-08-12 09:16:00,
2013-08-12 05:17:00,70.1,69.8,30.01,SW,231,0.0,0.0,99,0.00,,,0.00,Wunderground v.1.15,2013-08-12 09:17:00,
2013-08-12 05:18:00,70.1,69.8,30.01,SW,232,0.0,0.0,99,0.00,,,0.00,Wunderground v.1.15,2013-08-12 09:18:00,
2013-08-12 05:21:00,70.0,69.7,30.01,SW,232,0.0,0.0,99,0.00,,,0.00,Wunderground v.1.15,2013-08-12 09:21:00,
2013-08-12 05:22:00,70.0,69.7,30.01,SW,232,0.0,0.0,99,0.00,,,0.00,Wunderground v.1.15,2013-08-12 09:22:00,
2013-08-12 05:24:00,70.0,69.7,30.01,SW,232,0.0,0.0,99,0.00,,,0.00,Wunderground v.1.15,2013-08-12 09:24:00,
2013-08-12 05:26:00,70.0,69.7,30.01,SW,232,0.0,0.0,99,0.00,,,0.00,Wunderground v.1.15,2013-08-12 09:26:00,
2013-08-12 05:27:00,70.0,69.7,30.01,SW,232,0.0,0.0,99,0.00,,,0.00,Wunderground v.1.15,2013-08-12 09:27:00,
2013-08-12 05:29:00,70.0,69.7,30.01,SW,232,0.0,0.0,99,0.00,,,0.00,Wunderground v.1.15,2013-08-12 09:29:00,
2013-08-12 05:31:00,70.0,69.7,30.02,SW,232,0.0,0.0,99,0.00,,,0.00,Wunderground v.1.15,2013-08-12 09:31:00,
2013-08-12 05:32:00,70.1,69.8,30.02,SW,232,0.0,0.0,99,0.00,,,0.00,Wunderground v.1.15,2013-08-12 09:32:00,
2013-08-12 05:35:00,70.1,69.8,30.01,SW,232,0.0,0.0,99,0.00,,,0.00,Wunderground v.1.15,2013-08-12 09:35:00,
2013-08-12 05:36:00,70.1,69.8,30.02,SW,232,0.0,0.0,99,0.00,,,0.00,Wunderground v.1.15,2013-08-12 09:36:00,
2013-08-12 05:37:00,70.2,69.9,30.02,SW,232,0.0,0.0,99,0.00,,,0.00,Wunderground v.1.15,2013-08-12 09:37:00,
2013-08-12 05:40:00,70.2,69.9,30.02,SW,232,0.0,0.0,99,0.00,,,0.00,Wunderground v.1.15,2013-08-12 09:40:00,
2013-08-12 05:41:00,70.2,69.9,30.02,SW,232,0.0,0.0,99,0.00,,,0.00,Wunderground v.1.15,2013-08-12 09:41:00,
2013-08-12 05:42:00,70.2,69.9,30.02,SW,232,0.0,0.0,99,0.00,,,0.00,Wunderground v.1.15,2013-08-12 09:42:00,
2013-08-12 05:45:00,70.2,69.9,30.02,SW,232,0.0,0.0,99,0.00,,,0.00,Wunderground v.1.15,2013-08-12 09:45:00,
2013-08-12 05:46:00,70.2,69.9,30.02,SW,232,0.0,0.0,99,0.00,,,0.00,Wunderground v.1.15,2013-08-12 09:46:00,
2013-08-12 05:47:00,70.2,69.9,30.02,SW,232,0.0,0.0,99,0.00,,,0.00,Wunderground v.1.15,2013-08-12 09:47:00,
2013-08-12 05:48:00,70.2,69.9,30.02,SW,232,0.0,0.0,99,0.00,,,0.00,Wunderground v.1.15,2013-08-12 09:48:00,
2013-08-12 05:51:00,70.1,69.8,30.02,SW,232,0.0,0.0,99,0.00,,,0.00,Wunderground v.1.15,2013-08-12 09:51:00,
2013-08-12 05:52:00,70.1,69.8,30.02,SW,232,0.0,0.0,99,0.00,,,0.00,Wunderground v.1.15,2013-08-12 09:52:00,
2013-08-12 05:53:00,70.1,69.8,30.02,SW,232,0.0,0.0,99,0.00,,,0.00,Wunderground v.1.15,2013-08-12 09:53:00,
2013-08-12 05:56:00,70.0,69.7,30.02,SW,231,0.0,0.0,99,0.00,,,0.00,Wunderground v.1.15,2013-08-12 09:56:00,
2013-08-12 05:57:00,69.9,69.6,30.02,SW,232,0.0,0.0,99,0.00,,,0.00,Wunderground v.1.15,2013-08-12 09:57:00,
2013-08-12 05:58:00,69.9,69.6,30.02,SW,232,0.0,0.0,99,0.00,,,0.00,Wunderground v.1.15,2013-08-12 09:58:00,
2013-08-12 06:01:00,69.9,69.6,30.02,SW,232,0.0,0.0,99,0.00,,,0.00,Wunderground v.1.15,2013-08-12 10:01:00,
2013-08-12 06:02:00,69.9,69.6,30.02,SW,232,0.0,0.0,99,0.00,,,0.00,Wunderground v.1.15,2013-08-12 10:02:00,
2013-08-12 06:03:00,69.9,69.6,30.02,SW,232,0.0,0.0,99,0.00,,,0.00,Wunderground v.1.15,2013-08-12 10:03:00,
2013-08-12 06:04:00,69.9,69.6,30.02,SW,232,0.0,0.0,99,0.00,,,0.00,Wunderground v.1.15,2013-08-12 10:04:00,
2013-08-12 06:07:00,70.0,69.7,30.02,SW,232,0.0,0.0,99,0.00,,,0.00,Wunderground v.1.15,2013-08-12 10:07:00,
2013-08-12 06:08:00,70.0,69.7,30.02,SW,232,0.0,0.0,99,0.00,,,0.00,Wunderground v.1.15,2013-08-12 10:08:00,
2013-08-12 06:09:00,70.0,69.7,30.02,SW,232,0.0,0.0,99,0.00,,,0.00,Wunderground v.1.15,2013-08-12 10:09:00,
2013-08-12 06:12:00,70.0,69.7,30.01,SW,232,0.0,0.0,99,0.00,,,0.00,Wunderground v.1.15,2013-08-12 10:12:00,
2013-08-12 06:13:00,70.1,69.8,30.02,SW,231,0.0,0.0,99,0.00,,,0.00,Wunderground v.1.15,2013-08-12 10:13:00,
2013-08-12 06:14:00,70.1,69.8,30.02,SW,232,0.0,0.0,99,0.00,,,0.00,Wunderground v.1.15,2013-08-12 10:14:00,
2013-08-12 06:17:00,69.9,69.6,30.02,SW,232,0.0,0.0,99,0.00,,,0.00,Wunderground v.1.15,2013-08-12 10:17:00,
2013-08-12 06:18:00,70.0,69.7,30.02,SW,233,0.0,0.0,99,0.00,,,0.00,Wunderground v.1.15,2013-08-12 10:18:00,
2013-08-12 06:19:00,70.0,69.7,30.02,SW,232,0.0,0.0,99,0.00,,,0.00,Wunderground v.1.15,2013-08-12 10:19:00,
2013-08-12 06:22:00,70.0,69.7,30.02,SW,235,1.0,2.0,99,0.00,,,0.00,Wunderground v.1.15,2013-08-12 10:22:00,
2013-08-12 06:23:00,70.0,69.7,30.02,SW,235,0.0,2.0,99,0.00,,,0.00,Wunderground v.1.15,2013-08-12 10:23:00,
2013-08-12 06:24:00,70.0,69.7,30.02,SW,235,0.0,2.0,99,0.00,,,0.00,Wunderground v.1.15,2013-08-12 10:24:00,
2013-08-12 06:25:00,70.0,69.7,30.02,SW,235,0.0,2.0,99,0.00,,,0.00,Wunderground v.1.15,2013-08-12 10:25:00,
2013-08-12 06:27:00,70.0,69.7,30.02,SW,235,0.0,2.0,99,0.00,,,0.00,Wunderground v.1.15,2013-08-12 10:27:00,
2013-08-12 06:28:00,70.0,69.7,30.02,SW,235,0.0,2.0,99,0.00,,,0.00,Wunderground v.1.15,2013-08-12 10:28:00,
2013-08-12 06:29:00,70.0,69.7,30.02,SW,235,0.0,2.0,99,0.00,,,0.00,Wunderground v.1.15,2013-08-12 10:29:00,
2013-08-12 06:30:00,70.1,69.8,30.02,SW,235,0.0,0.0,99,0.00,,,0.00,Wunderground v.1.15,2013-08-12 10:30:00,
2013-08-12 06:32:00,70.1,69.8,30.02,SW,235,0.0,0.0,99,0.00,,,0.00,Wunderground v.1.15,2013-08-12 10:32:00,
2013-08-12 06:34:00,70.1,69.8,30.02,SW,235,1.0,1.0,99,0.00,,,0.00,Wunderground v.1.15,2013-08-12 10:34:00,
2013-08-12 06:35:00,70.1,69.8,30.02,SW,235,0.0,1.0,99,0.00,,,0.00,Wunderground v.1.15,2013-08-12 10:35:00,
2013-08-12 06:37:00,70.1,69.8,30.02,SW,235,0.0,1.0,99,0.00,,,0.00,Wunderground v.1.15,2013-08-12 10:37:00,
2013-08-12 06:39:00,70.1,69.8,30.02,SW,235,0.0,1.0,99,0.00,,,0.00,Wunderground v.1.15,2013-08-12 10:39:00,
2013-08-12 06:40:00,70.1,69.8,30.02,SW,235,0.0,0.0,99,0.00,,,0.00,Wunderground v.1.15,2013-08-12 10:40:00,
2013-08-12 06:43:00,70.1,69.8,30.02,SW,235,0.0,0.0,99,0.00,,,0.00,Wunderground v.1.15,2013-08-12 10:43:00,
2013-08-12 06:44:00,70.1,69.8,30.02,SW,235,0.0,0.0,99,0.00,,,0.00,Wunderground v.1.15,2013-08-12 10:44:00,
2013-08-12 06:45:00,70.1,69.8,30.02,SW,235,0.0,0.0,99,0.00,,,0.00,Wunderground v.1.15,2013-08-12 10:45:00,
2013-08-12 06:49:00,70.0,69.7,30.02,SW,235,0.0,0.0,99,0.00,,,0.00,Wunderground v.1.15,2013-08-12 10:49:00,
2013-08-12 06:50:00,70.1,69.8,30.02,SW,235,0.0,0.0,99,0.00,,,0.00,Wunderground v.1.15,2013-08-12 10:50:00,
2013-08-12 06:51:00,70.0,69.7,30.02,SW,235,0.0,0.0,99,0.00,,,0.00,Wunderground v.1.15,2013-08-12 10:51:00,
2013-08-12 06:54:00,70.0,69.7,30.02,SW,235,0.0,0.0,99,0.00,,,0.00,Wunderground v.1.15,2013-08-12 10:54:00,
2013-08-12 06:55:00,70.0,69.7,30.02,SW,235,0.0,0.0,99,0.00,,,0.00,Wunderground v.1.15,2013-08-12 10:55:00,
2013-08-12 06:56:00,70.0,69.7,30.02,SW,235,0.0,0.0,99,0.00,,,0.00,Wunderground v.1.15,2013-08-12 10:56:00,
2013-08-12 06:59:00,70.0,69.7,30.02,SW,235,0.0,0.0,99,0.00,,,0.00,Wunderground v.1.15,2013-08-12 10:59:00,
2013-08-12 07:00:00,70.0,69.7,30.02,SW,235,0.0,0.0,99,0.00,,,0.00,Wunderground v.1.15,2013-08-12 11:00:00,
2013-08-12 07:01:00,70.0,69.7,30.02,SW,235,0.0,0.0,99,0.00,,,0.00,Wunderground v.1.15,2013-08-12 11:01:00,
2013-08-12 07:04:00,70.0,69.7,30.02,SW,235,0.0,0.0,99,0.00,,,0.00,Wunderground v.1.15,2013-08-12 11:04:00,
2013-08-12 07:05:00,70.0,69.7,30.02,SW,235,0.0,0.0,99,0.00,,,0.00,Wunderground v.1.15,2013-08-12 11:05:00,
2013-08-12 07:06:00,70.0,69.7,30.02,SW,235,0.0,0.0,99,0.00,,,0.00,Wunderground v.1.15,2013-08-12 11:06:00,
2013-08-12 07:09:00,70.1,69.8,30.02,SW,235,0.0,0.0,99,0.00,,,0.00,Wunderground v.1.15,2013-08-12 11:09:00,
2013-08-12 07:10:00,70.1,69.8,30.02,SW,235,0.0,0.0,99,0.00,,,0.00,Wunderground v.1.15,2013-08-12 11:10:00,
2013-08-12 07:11:00,70.1,69.8,30.02,SW,235,0.0,0.0,99,0.00,,,0.00,Wunderground v.1.15,2013-08-12 11:11:00,
2013-08-12 07:15:00,70.1,69.8,30.02,SW,235,0.0,0.0,99,0.00,,,0.00,Wunderground v.1.15,2013-08-12 11:15:00,
2013-08-12 07:16:00,70.1,69.8,30.02,SW,235,0.0,0.0,99,0.00,,,0.00,Wunderground v.1.15,2013-08-12 11:16:00,
2013-08-12 07:20:00,70.1,69.8,30.02,SW,235,0.0,0.0,99,0.00,,,0.00,Wunderground v.1.15,2013-08-12 11:20:00,
2013-08-12 07:21:00,70.1,69.8,30.02,SW,235,0.0,0.0,99,0.00,,,0.00,Wunderground v.1.15,2013-08-12 11:21:00,
2013-08-12 07:25:00,70.2,69.9,30.03,SW,235,0.0,0.0,99,0.00,,,0.00,Wunderground v.1.15,2013-08-12 11:25:00,
2013-08-12 07:26:00,70.2,69.9,30.03,SW,235,0.0,0.0,99,0.00,,,0.00,Wunderground v.1.15,2013-08-12 11:26:00,
2013-08-12 07:31:00,70.3,70.0,30.03,SW,235,0.0,0.0,99,0.00,,,0.00,Wunderground v.1.15,2013-08-12 11:31:00,
2013-08-12 07:36:00,70.4,69.8,30.02,SW,235,0.0,0.0,98,0.00,,,0.00,Wunderground v.1.15,2013-08-12 11:36:00,
2013-08-12 07:37:00,70.5,69.9,30.02,SW,233,0.0,0.0,98,0.00,,,0.00,Wunderground v.1.15,2013-08-12 11:37:00,
2013-08-12 07:41:00,70.5,69.9,30.03,SW,235,0.0,0.0,98,0.00,,,0.00,Wunderground v.1.15,2013-08-12 11:41:00,
2013-08-12 07:42:00,70.5,69.9,30.02,SW,235,0.0,0.0,98,0.00,,,0.00,Wunderground v.1.15,2013-08-12 11:42:00,
2013-08-12 07:46:00,70.6,70.0,30.03,SW,229,0.0,0.0,98,0.00,,,0.00,Wunderground v.1.15,2013-08-12 11:46:00,
2013-08-12 07:47:00,70.7,70.1,30.03,SW,229,0.0,0.0,98,0.00,,,0.00,Wunderground v.1.15,2013-08-12 11:47:00,
2013-08-12 07:51:00,70.9,70.3,30.02,SW,231,0.0,0.0,98,0.00,,,0.00,Wunderground v.1.15,2013-08-12 11:51:00,
2013-08-12 07:52:00,70.9,70.3,30.02,SW,231,0.0,0.0,98,0.00,,,0.00,Wunderground v.1.15,2013-08-12 11:52:00,
2013-08-12 07:56:00,71.2,70.6,30.03,SW,231,0.0,0.0,98,0.00,,,0.00,Wunderground v.1.15,2013-08-12 11:56:00,
2013-08-12 07:57:00,71.2,70.3,30.03,SW,231,0.0,0.0,97,0.00,,,0.00,Wunderground v.1.15,2013-08-12 11:57:00,
2013-08-12 07:58:00,71.4,70.5,30.03,SW,231,0.0,0.0,97,0.00,,,0.00,Wunderground v.1.15,2013-08-12 11:58:00,
2013-08-12 08:01:00,71.6,70.7,30.03,SW,230,0.0,0.0,97,0.00,,,0.00,Wunderground v.1.15,2013-08-12 12:01:00,
2013-08-12 08:02:00,71.6,70.7,30.03,SW,231,0.0,0.0,97,0.00,,,0.00,Wunderground v.1.15,2013-08-12 12:02:00,
2013-08-12 08:03:00,71.6,70.7,30.03,SW,231,0.0,0.0,97,0.00,,,0.00,Wunderground v.1.15,2013-08-12 12:03:00,
2013-08-12 08:06:00,71.9,70.7,30.03,SW,218,0.0,0.0,96,0.00,,,0.00,Wunderground v.1.15,2013-08-12 12:06:00,
2013-08-12 08:07:00,71.9,70.7,30.03,SW,229,0.0,0.0,96,0.00,,,0.00,Wunderground v.1.15,2013-08-12 12:07:00,
2013-08-12 08:08:00,72.0,70.8,30.03,SW,230,0.0,0.0,96,0.00,,,0.00,Wunderground v.1.15,2013-08-12 12:08:00,
2013-08-12 08:11:00,72.2,71.0,30.03,SW,229,0.0,0.0,96,0.00,,,0.00,Wunderground v.1.15,2013-08-12 12:11:00,
2013-08-12 08:12:00,72.2,71.0,30.03,SW,229,0.0,0.0,96,0.00,,,0.00,Wunderground v.1.15,2013-08-12 12:12:00,
2013-08-12 08:13:00,72.4,71.2,30.03,SW,229,0.0,0.0,96,0.00,,,0.00,Wunderground v.1.15,2013-08-12 12:13:00,
2013-08-12 08:14:00,72.5,71.0,30.03,SW,229,0.0,0.0,95,0.00,,,0.00,Wunderground v.1.15,2013-08-12 12:14:00,
2013-08-12 08:16:00,72.6,71.1,30.03,SW,229,0.0,0.0,95,0.00,,,0.00,Wunderground v.1.15,2013-08-12 12:16:00,
2013-08-12 08:17:00,72.7,71.2,30.03,SW,229,0.0,0.0,95,0.00,,,0.00,Wunderground v.1.15,2013-08-12 12:17:00,
2013-08-12 08:19:00,72.8,71.3,30.03,SW,229,0.0,0.0,95,0.00,,,0.00,Wunderground v.1.15,2013-08-12 12:19:00,
2013-08-12 08:22:00,73.0,71.2,30.03,SW,229,0.0,0.0,94,0.00,,,0.00,Wunderground v.1.15,2013-08-12 12:22:00,
2013-08-12 08:24:00,73.2,71.4,30.03,SW,229,0.0,0.0,94,0.00,,,0.00,Wunderground v.1.15,2013-08-12 12:24:00,
2013-08-12 08:27:00,73.4,71.6,30.03,SW,226,0.0,0.0,94,0.00,,,0.00,Wunderground v.1.15,2013-08-12 12:27:00,
2013-08-12 08:29:00,73.6,71.8,30.02,SW,219,1.0,2.0,94,0.00,,,0.00,Wunderground v.1.15,2013-08-12 12:29:00,
2013-08-12 08:30:00,73.7,71.9,30.03,SW,219,1.0,1.0,94,0.00,,,0.00,Wunderground v.1.15,2013-08-12 12:30:00,
2013-08-12 08:32:00,73.9,72.1,30.03,SW,229,1.0,2.0,94,0.00,,,0.00,Wunderground v.1.15,2013-08-12 12:32:00,
2013-08-12 08:34:00,74.1,71.9,30.03,SW,229,0.0,2.0,93,0.00,,,0.00,Wunderground v.1.15,2013-08-12 12:34:00,
2013-08-12 08:35:00,74.1,71.9,30.03,SW,226,1.0,2.0,93,0.00,,,0.00,Wunderground v.1.15,2013-08-12 12:35:00,
2013-08-12 08:37:00,74.3,72.1,30.02,SW,228,0.0,2.0,93,0.00,,,0.00,Wunderground v.1.15,2013-08-12 12:37:00,
2013-08-12 08:38:00,74.4,72.2,30.02,SW,229,0.0,2.0,93,0.00,,,0.00,Wunderground v.1.15,2013-08-12 12:38:00,
2013-08-12 08:39:00,74.5,72.3,30.02,SW,228,0.0,2.0,93,0.00,,,0.00,Wunderground v.1.15,2013-08-12 12:39:00,
2013-08-12 08:40:00,74.5,72.3,30.02,SW,228,1.0,1.0,93,0.00,,,0.00,Wunderground v.1.15,2013-08-12 12:40:00,
2013-08-12 08:42:00,74.7,72.2,30.02,SW,225,1.0,1.0,92,0.00,,,0.00,Wunderground v.1.15,2013-08-12 12:42:00,
2013-08-12 08:43:00,74.7,72.5,30.02,SW,225,1.0,1.0,93,0.00,,,0.00,Wunderground v.1.15,2013-08-12 12:43:00,
2013-08-12 08:44:00,74.9,72.4,30.02,SW,225,0.0,1.0,92,0.00,,,0.00,Wunderground v.1.15,2013-08-12 12:44:00,
2013-08-12 08:45:00,74.9,72.7,30.02,SW,225,0.0,1.0,93,0.00,,,0.00,Wunderground v.1.15,2013-08-12 12:45:00,
2013-08-12 08:47:00,75.1,72.9,30.02,SW,225,0.0,1.0,93,0.00,,,0.00,Wunderground v.1.15,2013-08-12 12:47:00,
2013-08-12 08:48:00,75.2,73.0,30.02,SW,224,0.0,1.0,93,0.00,,,0.00,Wunderground v.1.15,2013-08-12 12:48:00,
2013-08-12 08:50:00,75.2,72.7,30.02,SW,225,0.0,1.0,92,0.00,,,0.00,Wunderground v.1.15,2013-08-12 12:50:00,
2013-08-12 08:51:00,75.2,72.7,30.02,SW,225,0.0,1.0,92,0.00,,,0.00,Wunderground v.1.15,2013-08-12 12:51:00,
2013-08-12 08:52:00,75.3,72.8,30.02,SW,225,0.0,1.0,92,0.00,,,0.00,Wunderground v.1.15,2013-08-12 12:52:00,
2013-08-12 08:53:00,75.3,72.8,30.02,SW,225,0.0,1.0,92,0.00,,,0.00,Wunderground v.1.15,2013-08-12 12:53:00,
2013-08-12 08:54:00,75.3,72.8,30.02,SW,225,0.0,1.0,92,0.00,,,0.00,Wunderground v.1.15,2013-08-12 12:54:00,
2013-08-12 08:55:00,75.4,72.9,30.02,SW,225,0.0,1.0,92,0.00,,,0.00,Wunderground v.1.15,2013-08-12 12:55:00,
2013-08-12 08:56:00,75.5,73.0,30.02,SW,225,0.0,1.0,92,0.00,,,0.00,Wunderground v.1.15,2013-08-12 12:56:00,
2013-08-12 08:58:00,75.6,73.1,30.02,SW,236,0.0,1.0,92,0.00,,,0.00,Wunderground v.1.15,2013-08-12 12:58:00,
2013-08-12 08:59:00,75.7,73.2,30.02,SW,236,0.0,1.0,92,0.00,,,0.00,Wunderground v.1.15,2013-08-12 12:59:00,
2013-08-12 09:00:00,75.8,73.0,30.02,SW,236,0.0,0.0,91,0.00,,,0.00,Wunderground v.1.15,2013-08-12 13:00:00,
2013-08-12 09:01:00,75.9,73.1,30.02,SW,236,0.0,0.0,91,0.00,,,0.00,Wunderground v.1.15,2013-08-12 13:01:00,
2013-08-12 09:03:00,76.1,73.3,30.02,SW,236,0.0,0.0,91,0.00,,,0.00,Wunderground v.1.15,2013-08-12 13:03:00,
2013-08-12 09:04:00,76.2,73.4,30.02,SW,236,0.0,0.0,91,0.00,,,0.00,Wunderground v.1.15,2013-08-12 13:04:00,
2013-08-12 09:06:00,76.4,73.6,30.02,SW,236,0.0,0.0,91,0.00,,,0.00,Wunderground v.1.15,2013-08-12 13:06:00,
2013-08-12 09:08:00,76.8,73.6,30.03,SW,236,0.0,0.0,90,0.00,,,0.00,Wunderground v.1.15,2013-08-12 13:08:00,
2013-08-12 09:10:00,76.9,73.7,30.03,SW,236,0.0,0.0,90,0.00,,,0.00,Wunderground v.1.15,2013-08-12 13:10:00,
2013-08-12 09:11:00,77.1,73.6,30.03,East,97,0.0,0.0,89,0.00,,,0.00,Wunderground v.1.15,2013-08-12 13:11:00,
2013-08-12 09:13:00,77.5,74.0,30.02,ENE,77,1.0,1.0,89,0.00,,,0.00,Wunderground v.1.15,2013-08-12 13:13:00,
2013-08-12 09:14:00,77.6,73.8,30.02,ENE,77,0.0,1.0,88,0.00,,,0.00,Wunderground v.1.15,2013-08-12 13:14:00,
2013-08-12 09:15:00,77.7,73.5,30.02,ENE,76,0.0,1.0,87,0.00,,,0.00,Wunderground v.1.15,2013-08-12 13:15:00,
2013-08-12 09:16:00,78.0,73.8,30.02,ENE,76,0.0,1.0,87,0.00,,,0.00,Wunderground v.1.15,2013-08-12 13:16:00,
2013-08-12 09:18:00,78.4,74.2,30.02,ENE,76,0.0,1.0,87,0.00,,,0.00,Wunderground v.1.15,2013-08-12 13:18:00,
2013-08-12 09:19:00,78.5,74.3,30.02,ENE,76,0.0,1.0,87,0.00,,,0.00,Wunderground v.1.15,2013-08-12 13:19:00,
2013-08-12 09:20:00,78.6,74.4,30.02,ENE,76,0.0,0.0,87,0.00,,,0.00,Wunderground v.1.15,2013-08-12 13:20:00,
2013-08-12 09:21:00,78.8,74.3,30.02,NE,55,0.0,2.0,86,0.00,,,0.00,Wunderground v.1.15,2013-08-12 13:21:00,
2013-08-12 09:24:00,79.1,74.5,30.02,NE,56,0.0,2.0,86,0.00,,,0.00,Wunderground v.1.15,2013-08-12 13:24:00,
2013-08-12 09:25:00,79.3,74.7,30.02,NE,56,0.0,2.0,86,0.00,,,0.00,Wunderground v.1.15,2013-08-12 13:25:00,
2013-08-12 09:26:00,79.4,74.1,30.02,NE,42,1.0,2.0,84,0.00,,,0.00,Wunderground v.1.15,2013-08-12 13:26:00,
2013-08-12 09:27:00,79.4,74.1,30.02,NE,42,0.0,2.0,84,0.00,,,0.00,Wunderground v.1.15,2013-08-12 13:27:00,
2013-08-12 09:29:00,79.7,73.7,30.02,East,91,2.0,2.0,82,0.00,,,0.00,Wunderground v.1.15,2013-08-12 13:29:00,
2013-08-12 09:30:00,79.8,73.8,30.02,East,85,0.0,1.0,82,0.00,,,0.00,Wunderground v.1.15,2013-08-12 13:30:00,
2013-08-12 09:31:00,80.1,74.1,30.02,East,79,0.0,1.0,82,0.00,,,0.00,Wunderground v.1.15,2013-08-12 13:31:00,
2013-08-12 09:32:00,80.1,74.1,30.02,East,79,0.0,1.0,82,0.00,,,0.00,Wunderground v.1.15,2013-08-12 13:32:00,
2013-08-12 09:34:00,80.5,74.5,30.02,ENE,70,0.0,1.0,82,0.00,,,0.00,Wunderground v.1.15,2013-08-12 13:34:00,
2013-08-12 09:35:00,80.5,74.5,30.02,ENE,70,0.0,1.0,82,0.00,,,0.00,Wunderground v.1.15,2013-08-12 13:35:00,
2013-08-12 09:36:00,80.9,74.9,30.02,ENE,69,0.0,1.0,82,0.00,,,0.00,Wunderground v.1.15,2013-08-12 13:36:00,
2013-08-12 09:37:00,80.9,74.9,30.02,ENE,70,0.0,1.0,82,0.00,,,0.00,Wunderground v.1.15,2013-08-12 13:37:00,
2013-08-12 09:40:00,81.5,75.1,30.02,ENE,68,0.0,0.0,81,0.00,,,0.00,Wunderground v.1.15,2013-08-12 13:40:00,
2013-08-12 09:41:00,81.6,74.8,30.02,NE,41,0.0,0.0,80,0.00,,,0.00,Wunderground v.1.15,2013-08-12 13:41:00,
2013-08-12 09:42:00,81.8,75.0,30.02,NE,41,0.0,0.0,80,0.00,,,0.00,Wunderground v.1.15,2013-08-12 13:42:00,
2013-08-12 09:45:00,82.1,74.9,30.02,NE,41,0.0,0.0,79,0.00,,,0.00,Wunderground v.1.15,2013-08-12 13:45:00,
2013-08-12 09:46:00,82.1,74.6,30.02,ESE,103,2.0,2.0,78,0.00,,,0.00,Wunderground v.1.15,2013-08-12 13:46:00,
2013-08-12 09:47:00,82.1,74.6,30.02,East,86,0.0,2.0,78,0.00,,,0.00,Wunderground v.1.15,2013-08-12 13:47:00,
2013-08-12 09:48:00,82.1,73.4,30.02,ENE,78,0.0,2.0,75,0.00,,,0.00,Wunderground v.1.15,2013-08-12 13:48:00,
2013-08-12 09:50:00,82.1,73.8,30.02,East,100,0.0,0.0,76,0.00,,,0.00,Wunderground v.1.15,2013-08-12 13:50:00,
2013-08-12 09:51:00,82.1,73.8,30.02,East,100,0.0,0.0,76,0.00,,,0.00,Wunderground v.1.15,2013-08-12 13:51:00,
2013-08-12 09:52:00,82.2,74.3,30.02,East,100,0.0,0.0,77,0.00,,,0.00,Wunderground v.1.15,2013-08-12 13:52:00,
2013-08-12 09:53:00,82.2,73.5,30.03,East,84,0.0,2.0,75,0.00,,,0.00,Wunderground v.1.15,2013-08-12 13:53:00,
2013-08-12 09:55:00,82.4,73.7,30.02,ESE,122,0.0,2.0,75,0.00,,,0.00,Wunderground v.1.15,2013-08-12 13:55:00,
2013-08-12 09:56:00,82.5,73.8,30.02,ESE,123,0.0,2.0,75,0.00,,,0.00,Wunderground v.1.15,2013-08-12 13:56:00,
2013-08-12 09:58:00,82.6,74.7,30.03,SE,125,0.0,2.0,77,0.00,,,0.00,Wunderground v.1.15,2013-08-12 13:58:00,
2013-08-12 09:59:00,82.8,74.8,30.03,SE,126,0.0,2.0,77,0.00,,,0.00,Wunderground v.1.15,2013-08-12 13:59:00,
2013-08-12 10:01:00,83.0,75.0,30.03,East,94,1.0,1.0,77,0.00,,,0.00,Wunderground v.1.15,2013-08-12 14:01:00,
2013-08-12 10:02:00,83.0,74.6,30.03,East,93,0.0,1.0,76,0.00,,,0.00,Wunderground v.1.15,2013-08-12 14:02:00,
2013-08-12 10:03:00,83.2,74.8,30.03,East,95,0.0,1.0,76,0.00,,,0.00,Wunderground v.1.15,2013-08-12 14:03:00,
2013-08-12 10:04:00,83.4,74.2,30.03,East,94,0.0,1.0,74,0.00,,,0.00,Wunderground v.1.15,2013-08-12 14:04:00,
2013-08-12 10:06:00,83.7,74.1,30.03,SE,128,1.0,1.0,73,0.00,,,0.00,Wunderground v.1.15,2013-08-12 14:06:00,
2013-08-12 10:07:00,83.8,73.0,30.03,East,100,1.0,3.0,70,0.00,,,0.00,Wunderground v.1.15,2013-08-12 14:07:00,
2013-08-12 10:08:00,83.8,73.0,30.03,ENE,74,1.0,3.0,70,0.00,,,0.00,Wunderground v.1.15,2013-08-12 14:08:00,
2013-08-12 10:09:00,83.8,73.4,30.03,NNE,32,1.0,3.0,71,0.00,,,0.00,Wunderground v.1.15,2013-08-12 14:09:00,
2013-08-12 10:11:00,83.7,73.3,30.03,East,92,1.0,2.0,71,0.00,,,0.00,Wunderground v.1.15,2013-08-12 14:11:00,
2013-08-12 10:13:00,83.7,73.7,30.02,East,89,0.0,2.0,72,0.00,,,0.00,Wunderground v.1.15,2013-08-12 14:13:00,
2013-08-12 10:14:00,83.7,73.7,30.02,East,89,0.0,2.0,72,0.00,,,0.00,Wunderground v.1.15,2013-08-12 14:14:00,
2013-08-12 10:16:00,83.8,73.8,30.03,East,89,0.0,2.0,72,0.00,,,0.00,Wunderground v.1.15,2013-08-12 14:16:00,
2013-08-12 10:18:00,83.7,74.1,30.02,East,90,0.0,2.0,73,0.00,,,0.00,Wunderground v.1.15,2013-08-12 14:18:00,
2013-08-12 10:19:00,83.7,74.1,30.02,East,91,0.0,2.0,73,0.00,,,0.00,Wunderground v.1.15,2013-08-12 14:19:00,
2013-08-12 10:21:00,83.7,74.5,30.03,East,98,1.0,1.0,74,0.00,,,0.00,Wunderground v.1.15,2013-08-12 14:21:00,
2013-08-12 10:22:00,83.6,74.4,30.03,East,98,0.0,1.0,74,0.00,,,0.00,Wunderground v.1.15,2013-08-12 14:22:00,
2013-08-12 10:24:00,83.8,74.6,30.03,East,98,0.0,1.0,74,0.00,,,0.00,Wunderground v.1.15,2013-08-12 14:24:00,
2013-08-12 10:25:00,83.9,73.9,30.03,East,100,0.0,1.0,72,0.00,,,0.00,Wunderground v.1.15,2013-08-12 14:25:00,
2013-08-12 10:26:00,84.1,73.7,30.03,East,100,0.0,1.0,71,0.00,,,0.00,Wunderground v.1.15,2013-08-12 14:26:00,
2013-08-12 10:27:00,84.3,73.9,30.03,East,101,1.0,1.0,71,0.00,,,0.00,Wunderground v.1.15,2013-08-12 14:27:00,
2013-08-12 10:29:00,84.6,73.3,30.02,NNE,15,0.0,2.0,69,0.00,,,0.00,Wunderground v.1.15,2013-08-12 14:29:00,
2013-08-12 10:30:00,84.6,73.7,30.02,NNE,14,0.0,0.0,70,0.00,,,0.00,Wunderground v.1.15,2013-08-12 14:30:00,
2013-08-12 10:31:00,84.5,73.2,30.02,NNE,15,0.0,0.0,69,0.00,,,0.00,Wunderground v.1.15,2013-08-12 14:31:00,
2013-08-12 10:32:00,84.5,73.2,30.02,NNE,14,0.0,0.0,69,0.00,,,0.00,Wunderground v.1.15,2013-08-12 14:32:00,
2013-08-12 10:34:00,84.5,74.1,30.03,NNE,15,0.0,0.0,71,0.00,,,0.00,Wunderground v.1.15,2013-08-12 14:34:00,
2013-08-12 10:35:00,84.6,74.6,30.03,NE,45,0.0,1.0,72,0.00,,,0.00,Wunderground v.1.15,2013-08-12 14:35:00,
2013-08-12 10:36:00,84.6,74.2,30.02,North,357,1.0,1.0,71,0.00,,,0.00,Wunderground v.1.15,2013-08-12 14:36:00,
2013-08-12 10:37:00,84.6,72.9,30.02,NNE,32,1.0,2.0,68,0.00,,,0.00,Wunderground v.1.15,2013-08-12 14:37:00,
2013-08-12 10:39:00,84.5,73.2,30.03,NW,312,1.0,2.0,69,0.00,,,0.00,Wunderground v.1.15,2013-08-12 14:39:00,
2013-08-12 10:40:00,84.5,72.8,30.02,NW,316,0.0,0.0,68,0.00,,,0.00,Wunderground v.1.15,2013-08-12 14:40:00,
2013-08-12 10:41:00,84.5,72.8,30.02,ENE,64,0.0,1.0,68,0.00,,,0.00,Wunderground v.1.15,2013-08-12 14:41:00,
2013-08-12 10:42:00,84.5,73.2,30.02,ENE,63,0.0,1.0,69,0.00,,,0.00,Wunderground v.1.15,2013-08-12 14:42:00,
2013-08-12 10:44:00,84.5,73.2,30.02,ENE,72,0.0,1.0,69,0.00,,,0.00,Wunderground v.1.15,2013-08-12 14:44:00,
2013-08-12 10:45:00,84.6,73.7,30.02,ENE,72,0.0,1.0,70,0.00,,,0.00,Wunderground v.1.15,2013-08-12 14:45:00,
2013-08-12 10:46:00,84.6,73.7,30.02,ENE,72,0.0,1.0,70,0.00,,,0.00,Wunderground v.1.15,2013-08-12 14:46:00,
2013-08-12 10:48:00,84.7,73.8,30.02,ENE,72,0.0,1.0,70,0.00,,,0.00,Wunderground v.1.15,2013-08-12 14:48:00,
2013-08-12 10:49:00,84.8,75.2,30.02,ENE,73,0.0,1.0,73,0.00,,,0.00,Wunderground v.1.15,2013-08-12 14:49:00,
2013-08-12 10:50:00,84.9,74.9,30.02,ENE,72,0.0,0.0,72,0.00,,,0.00,Wunderground v.1.15,2013-08-12 14:50:00,
2013-08-12 10:51:00,85.0,74.1,30.02,ENE,73,0.0,0.0,70,0.00,,,0.00,Wunderground v.1.15,2013-08-12 14:51:00,
2013-08-12 10:53:00,85.2,74.3,30.02,ENE,73,0.0,0.0,70,0.00,,,0.00,Wunderground v.1.15,2013-08-12 14:53:00,
2013-08-12 10:55:00,85.5,74.2,30.02,ENE,73,0.0,0.0,69,0.00,,,0.00,Wunderground v.1.15,2013-08-12 14:55:00,
2013-08-12 10:56:00,85.5,74.6,30.02,ENE,74,2.0,2.0,70,0.00,,,0.00,Wunderground v.1.15,2013-08-12 14:56:00,
2013-08-12 10:57:00,85.5,73.3,30.02,ENE,62,0.0,3.0,67,0.00,,,0.00,Wunderground v.1.15,2013-08-12 14:57:00,
2013-08-12 10:58:00,85.5,74.2,30.02,ENE,63,0.0,3.0,69,0.00,,,0.00,Wunderground v.1.15,2013-08-12 14:58:00,
2013-08-12 11:00:00,85.6,74.3,30.02,NNW,340,1.0,1.0,69,0.00,,,0.00,Wunderground v.1.15,2013-08-12 15:00:00,
2013-08-12 11:01:00,85.7,73.0,30.02,NNW,340,0.0,1.0,66,0.00,,,0.00,Wunderground v.1.15,2013-08-12 15:01:00,
2013-08-12 11:02:00,85.8,73.1,30.02,NNE,12,1.0,1.0,66,0.00,,,0.00,Wunderground v.1.15,2013-08-12 15:02:00,
2013-08-12 11:03:00,86.0,73.3,30.02,East,79,1.0,2.0,66,0.00,,,0.00,Wunderground v.1.15,2013-08-12 15:03:00,
2013-08-12 11:05:00,86.0,72.9,30.02,East,97,2.0,2.0,65,0.00,,,0.00,Wunderground v.1.15,2013-08-12 15:05:00,
2013-08-12 11:06:00,86.0,72.9,30.02,East,87,1.0,2.0,65,0.00,,,0.00,Wunderground v.1.15,2013-08-12 15:06:00,
2013-08-12 11:07:00,85.7,72.6,30.02,ESE,108,2.0,2.0,65,0.00,,,0.00,Wunderground v.1.15,2013-08-12 15:07:00,
2013-08-12 11:08:00,85.5,73.7,30.02,SE,125,0.0,2.0,68,0.00,,,0.00,Wunderground v.1.15,2013-08-12 15:08:00,
2013-08-12 11:10:00,85.4,72.7,30.02,ESE,122,0.0,1.0,66,0.00,,,0.00,Wunderground v.1.15,2013-08-12 15:10:00,
2013-08-12 11:11:00,85.4,72.7,30.02,ESE,122,0.0,1.0,66,0.00,,,0.00,Wunderground v.1.15,2013-08-12 15:11:00,
2013-08-12 11:13:00,85.7,74.8,30.02,ESE,122,0.0,1.0,70,0.00,,,0.00,Wunderground v.1.15,2013-08-12 15:13:00,
2013-08-12 11:14:00,85.8,74.9,30.02,ESE,123,0.0,1.0,70,0.00,,,0.00,Wunderground v.1.15,2013-08-12 15:14:00,
2013-08-12 11:16:00,85.8,74.0,30.02,ESE,122,0.0,1.0,68,0.00,,,0.00,Wunderground v.1.15,2013-08-12 15:16:00,
2013-08-12 11:18:00,85.9,75.0,30.02,ESE,122,0.0,1.0,70,0.00,,,0.00,Wunderground v.1.15,2013-08-12 15:18:00,
2013-08-12 11:19:00,85.8,74.0,30.02,ESE,123,0.0,1.0,68,0.00,,,0.00,Wunderground v.1.15,2013-08-12 15:19:00,
2013-08-12 11:21:00,85.8,74.0,30.02,ESE,122,0.0,0.0,68,0.00,,,0.00,Wunderground v.1.15,2013-08-12 15:21:00,
2013-08-12 11:22:00,85.7,73.9,30.02,SSE,148,1.0,1.0,68,0.00,,,0.00,Wunderground v.1.15,2013-08-12 15:22:00,
2013-08-12 11:23:00,85.8,74.9,30.02,SE,125,0.0,1.0,70,0.00,,,0.00,Wunderground v.1.15,2013-08-12 15:23:00,
2013-08-12 11:24:00,85.8,73.6,30.02,SE,126,0.0,1.0,67,0.00,,,0.00,Wunderground v.1.15,2013-08-12 15:24:00,
2013-08-12 11:26:00,85.7,73.5,30.02,ENE,63,1.0,2.0,67,0.00,,,0.00,Wunderground v.1.15,2013-08-12 15:26:00,
2013-08-12 11:27:00,85.7,73.5,30.02,NE,56,0.0,2.0,67,0.00,,,0.00,Wunderground v.1.15,2013-08-12 15:27:00,
2013-08-12 11:28:00,85.9,74.5,30.02,SW,226,2.0,2.0,69,0.00,,,0.00,Wunderground v.1.15,2013-08-12 15:28:00,
2013-08-12 11:29:00,86.0,74.6,30.02,SW,219,2.0,2.0,69,0.00,,,0.00,Wunderground v.1.15,2013-08-12 15:29:00,
2013-08-12 11:31:00,86.1,73.0,30.02,SW,223,0.0,1.0,65,0.00,,,0.00,Wunderground v.1.15,2013-08-12 15:31:00,
2013-08-12 11:32:00,86.3,73.6,30.02,SW,224,0.0,1.0,66,0.00,,,0.00,Wunderground v.1.15,2013-08-12 15:32:00,
2013-08-12 11:33:00,86.3,73.6,30.02,SW,224,0.0,1.0,66,0.00,,,0.00,Wunderground v.1.15,2013-08-12 15:33:00,
2013-08-12 11:34:00,86.5,75.1,30.02,SW,232,2.0,2.0,69,0.00,,,0.00,Wunderground v.1.15,2013-08-12 15:34:00,
2013-08-12 11:36:00,86.7,73.5,30.02,SW,218,0.0,3.0,65,0.00,,,0.00,Wunderground v.1.15,2013-08-12 15:36:00,
2013-08-12 11:38:00,86.8,74.5,30.02,SW,232,0.0,3.0,67,0.00,,,0.00,Wunderground v.1.15,2013-08-12 15:38:00,
2013-08-12 11:39:00,86.9,74.2,30.02,WNW,290,0.0,3.0,66,0.00,,,0.00,Wunderground v.1.15,2013-08-12 15:39:00,
2013-08-12 11:42:00,86.9,72.8,30.02,SE,139,1.0,3.0,63,0.00,,,0.00,Wunderground v.1.15,2013-08-12 15:42:00,
2013-08-12 11:43:00,87.0,74.3,30.02,SE,138,0.0,3.0,66,0.00,,,0.00,Wunderground v.1.15,2013-08-12 15:43:00,
2013-08-12 11:44:00,87.1,73.4,30.02,SE,139,0.0,3.0,64,0.00,,,0.00,Wunderground v.1.15,2013-08-12 15:44:00,
2013-08-12 11:47:00,86.9,74.2,30.02,East,82,2.0,3.0,66,0.00,,,0.00,Wunderground v.1.15,2013-08-12 15:47:00,
2013-08-12 11:48:00,86.7,73.1,30.02,East,79,1.0,3.0,64,0.00,,,0.00,Wunderground v.1.15,2013-08-12 15:48:00,
2013-08-12 11:49:00,86.4,72.8,30.02,East,80,1.0,3.0,64,0.00,,,0.00,Wunderground v.1.15,2013-08-12 15:49:00,
2013-08-12 11:52:00,86.4,73.7,30.02,ENE,75,0.0,1.0,66,0.00,,,0.00,Wunderground v.1.15,2013-08-12 15:52:00,
2013-08-12 11:53:00,86.5,73.3,30.02,ENE,71,2.0,2.0,65,0.00,,,0.00,Wunderground v.1.15,2013-08-12 15:53:00,
2013-08-12 11:54:00,86.6,73.4,30.02,ENE,72,1.0,2.0,65,0.00,,,0.00,Wunderground v.1.15,2013-08-12 15:54:00,
2013-08-12 11:55:00,86.6,73.4,30.02,ENE,72,1.0,2.0,65,0.00,,,0.00,Wunderground v.1.15,2013-08-12 15:55:00,
2013-08-12 11:57:00,86.7,74.4,30.02,ENE,72,0.0,2.0,67,0.00,,,0.00,Wunderground v.1.15,2013-08-12 15:57:00,
2013-08-12 11:58:00,86.9,75.1,30.02,ENE,72,0.0,2.0,68,0.00,,,0.00,Wunderground v.1.15,2013-08-12 15:58:00,
2013-08-12 11:59:00,87.1,74.4,30.02,ENE,72,0.0,2.0,66,0.00,,,0.00,Wunderground v.1.15,2013-08-12 15:59:00,
2013-08-12 12:00:00,87.2,74.5,30.02,WSW,254,1.0,1.0,66,0.00,,,0.00,Wunderground v.1.15,2013-08-12 16:00:00,
2013-08-12 12:02:00,87.6,75.3,30.02,SW,235,0.0,1.0,67,0.00,,,0.00,Wunderground v.1.15,2013-08-12 16:02:00,
2013-08-12 12:03:00,87.7,74.5,30.02,NNE,25,1.0,2.0,65,0.00,,,0.00,Wunderground v.1.15,2013-08-12 16:03:00,
2013-08-12 12:05:00,87.9,74.2,30.02,NE,47,0.0,3.0,64,0.00,,,0.00,Wunderground v.1.15,2013-08-12 16:05:00,
2013-08-12 12:07:00,88.3,75.9,30.02,NE,49,0.0,3.0,67,0.00,,,0.00,Wunderground v.1.15,2013-08-12 16:07:00,
2013-08-12 12:09:00,88.5,75.7,30.02,WSW,241,3.0,3.0,66,0.00,,,0.00,Wunderground v.1.15,2013-08-12 16:09:00,
2013-08-12 12:10:00,88.4,75.6,30.02,SW,232,1.0,1.0,66,0.00,,,0.00,Wunderground v.1.15,2013-08-12 16:10:00,
2013-08-12 12:12:00,88.3,73.6,30.02,SW,228,1.0,3.0,62,0.00,,,0.00,Wunderground v.1.15,2013-08-12 16:12:00,
2013-08-12 12:15:00,88.1,72.5,30.01,SW,235,1.0,3.0,60,0.00,,,0.00,Wunderground v.1.15,2013-08-12 16:15:00,
2013-08-12 12:17:00,88.3,75.5,30.01,WSW,253,1.0,3.0,66,0.00,,,0.00,Wunderground v.1.15,2013-08-12 16:17:00,
2013-08-12 12:20:00,88.5,74.3,30.01,SSW,200,1.0,1.0,63,0.00,,,0.00,Wunderground v.1.15,2013-08-12 16:20:00,
2013-08-12 12:21:00,88.7,75.0,30.01,West,281,0.0,2.0,64,0.00,,,0.00,Wunderground v.1.15,2013-08-12 16:21:00,
2013-08-12 12:23:00,88.7,75.0,30.01,SSW,207,2.0,3.0,64,0.00,,,0.00,Wunderground v.1.15,2013-08-12 16:23:00,
2013-08-12 12:25:00,88.5,73.8,30.01,SW,214,0.0,4.0,62,0.00,,,0.00,Wunderground v.1.15,2013-08-12 16:25:00,
2013-08-12 12:26:00,88.5,74.8,30.01,SW,214,0.0,4.0,64,0.00,,,0.00,Wunderground v.1.15,2013-08-12 16:26:00,
2013-08-12 12:28:00,88.6,74.4,30.01,West,274,1.0,4.0,63,0.00,,,0.00,Wunderground v.1.15,2013-08-12 16:28:00,
2013-08-12 12:30:00,88.8,73.6,30.01,East,87,2.0,2.0,61,0.00,,,0.00,Wunderground v.1.15,2013-08-12 16:30:00,
2013-08-12 12:31:00,88.8,73.1,30.01,East,86,1.0,2.0,60,0.00,,,0.00,Wunderground v.1.15,2013-08-12 16:31:00,
2013-08-12 12:34:00,88.7,74.0,30.01,East,86,0.0,2.0,62,0.00,,,0.00,Wunderground v.1.15,2013-08-12 16:34:00,
2013-08-12 12:36:00,88.8,74.1,30.01,East,86,0.0,2.0,62,0.00,,,0.00,Wunderground v.1.15,2013-08-12 16:36:00,
2013-08-12 12:39:00,88.9,75.1,30.01,East,83,0.0,2.0,64,0.00,,,0.00,Wunderground v.1.15,2013-08-12 16:39:00,
2013-08-12 12:41:00,88.6,74.9,30.01,East,84,0.0,0.0,64,0.00,,,0.00,Wunderground v.1.15,2013-08-12 16:41:00,
2013-08-12 12:42:00,88.5,74.8,30.01,East,84,0.0,0.0,64,0.00,,,0.00,Wunderground v.1.15,2013-08-12 16:42:00,
2013-08-12 12:44:00,88.3,75.9,30.00,East,84,0.0,0.0,67,0.00,,,0.00,Wunderground v.1.15,2013-08-12 16:44:00,
2013-08-12 12:46:00,88.3,75.0,30.01,East,84,0.0,0.0,65,0.00,,,0.00,Wunderground v.1.15,2013-08-12 16:46:00,
2013-08-12 12:47:00,88.3,75.0,30.01,East,84,0.0,0.0,65,0.00,,,0.00,Wunderground v.1.15,2013-08-12 16:47:00,
2013-08-12 12:49:00,88.4,74.7,30.01,East,83,0.0,0.0,64,0.00,,,0.00,Wunderground v.1.15,2013-08-12 16:49:00,
2013-08-12 12:51:00,88.6,74.4,30.01,West,276,0.0,1.0,63,0.00,,,0.00,Wunderground v.1.15,2013-08-12 16:51:00,
2013-08-12 12:52:00,88.6,74.4,30.01,West,276,0.0,1.0,63,0.00,,,0.00,Wunderground v.1.15,2013-08-12 16:52:00,
2013-08-12 12:54:00,89.0,75.2,30.01,North,6,0.0,2.0,64,0.00,,,0.00,Wunderground v.1.15,2013-08-12 16:54:00,
2013-08-12 12:57:00,89.3,74.6,30.00,North,6,0.0,2.0,62,0.00,,,0.00,Wunderground v.1.15,2013-08-12 16:57:00,
2013-08-12 12:58:00,89.4,75.1,30.01,North,6,0.0,2.0,63,0.00,,,0.00,Wunderground v.1.15,2013-08-12 16:58:00,
2013-08-12 13:00:00,89.5,75.2,30.01,SSW,195,0.0,0.0,63,0.00,,,0.00,Wunderground v.1.15,2013-08-12 17:00:00,
2013-08-12 13:02:00,89.5,74.8,30.01,SSW,195,0.0,0.0,62,0.00,,,0.00,Wunderground v.1.15,2013-08-12 17:02:00,
2013-08-12 13:03:00,89.5,75.2,30.01,SSW,195,0.0,0.0,63,0.00,,,0.00,Wunderground v.1.15,2013-08-12 17:03:00,
2013-08-12 13:05:00,89.6,75.8,30.01,SSW,202,0.0,0.0,64,0.00,,,0.00,Wunderground v.1.15,2013-08-12 17:05:00,
2013-08-12 13:07:00,89.6,76.7,30.01,WSW,237,0.0,2.0,66,0.00,,,0.00,Wunderground v.1.15,2013-08-12 17:07:00,
2013-08-12 13:08:00,89.6,75.8,30.00,East,92,2.0,2.0,64,0.00,,,0.00,Wunderground v.1.15,2013-08-12 17:08:00,
2013-08-12 13:10:00,89.6,74.4,30.00,SW,231,0.0,1.0,61,0.00,,,0.00,Wunderground v.1.15,2013-08-12 17:10:00,
2013-08-12 13:12:00,89.5,73.8,30.00,SW,232,0.0,1.0,60,0.00,,,0.00,Wunderground v.1.15,2013-08-12 17:12:00,
2013-08-12 13:13:00,89.5,74.8,30.00,SW,231,0.0,1.0,62,0.00,,,0.00,Wunderground v.1.15,2013-08-12 17:13:00,
2013-08-12 13:15:00,89.5,73.8,30.00,WSW,237,1.0,1.0,60,0.00,,,0.00,Wunderground v.1.15,2013-08-12 17:15:00,
2013-08-12 13:17:00,89.1,75.3,30.00,WSW,237,0.0,1.0,64,0.00,,,0.00,Wunderground v.1.15,2013-08-12 17:17:00,
2013-08-12 13:18:00,89.0,75.2,30.00,WSW,238,1.0,1.0,64,0.00,,,0.00,Wunderground v.1.15,2013-08-12 17:18:00,
2013-08-12 13:21:00,88.7,75.4,30.00,East,98,0.0,1.0,65,0.00,,,0.00,Wunderground v.1.15,2013-08-12 17:21:00,
2013-08-12 13:22:00,88.5,75.7,30.00,East,89,0.0,1.0,66,0.00,,,0.00,Wunderground v.1.15,2013-08-12 17:22:00,
2013-08-12 13:23:00,88.3,76.4,30.00,East,89,0.0,1.0,68,0.00,,,0.00,Wunderground v.1.15,2013-08-12 17:23:00,
2013-08-12 13:24:00,88.3,76.4,30.00,East,89,0.0,1.0,68,0.00,,,0.00,Wunderground v.1.15,2013-08-12 17:24:00,
2013-08-12 13:26:00,88.1,75.3,30.00,WSW,242,0.0,1.0,66,0.00,,,0.00,Wunderground v.1.15,2013-08-12 17:26:00,
2013-08-12 13:27:00,88.1,75.8,30.00,WSW,241,0.0,1.0,67,0.00,,,0.00,Wunderground v.1.15,2013-08-12 17:27:00,
2013-08-12 13:28:00,88.1,75.8,30.00,WSW,242,0.0,1.0,67,0.00,,,0.00,Wunderground v.1.15,2013-08-12 17:28:00,
2013-08-12 13:29:00,88.1,75.8,30.00,WSW,242,0.0,1.0,67,0.00,,,0.00,Wunderground v.1.15,2013-08-12 17:29:00,
2013-08-12 13:31:00,88.4,75.1,30.00,WSW,242,0.0,0.0,65,0.00,,,0.00,Wunderground v.1.15,2013-08-12 17:31:00,
2013-08-12 13:33:00,88.9,77.0,30.00,WSW,242,0.0,0.0,68,0.00,,,0.00,Wunderground v.1.15,2013-08-12 17:33:00,
2013-08-12 13:34:00,89.0,77.5,30.00,WSW,242,0.0,0.0,69,0.00,,,0.00,Wunderground v.1.15,2013-08-12 17:34:00,
2013-08-12 13:36:00,89.3,76.0,30.00,West,263,0.0,0.0,65,0.00,,,0.00,Wunderground v.1.15,2013-08-12 17:36:00,
2013-08-12 13:38:00,89.5,75.7,30.00,North,349,0.0,1.0,64,0.00,,,0.00,Wunderground v.1.15,2013-08-12 17:38:00,
2013-08-12 13:39:00,89.5,75.7,30.00,North,349,0.0,1.0,64,0.00,,,0.00,Wunderground v.1.15,2013-08-12 17:39:00,
2013-08-12 13:40:00,89.6,76.7,29.99,SSW,198,1.0,1.0,66,0.00,,,0.00,Wunderground v.1.15,2013-08-12 17:40:00,
2013-08-12 13:41:00,89.7,74.5,29.99,SSW,198,0.0,1.0,61,0.00,,,0.00,Wunderground v.1.15,2013-08-12 17:41:00,
2013-08-12 13:44:00,90.2,73.9,29.99,WNW,294,0.0,2.0,59,0.00,,,0.00,Wunderground v.1.15,2013-08-12 17:44:00,
2013-08-12 13:45:00,90.2,73.9,29.99,WNW,294,0.0,2.0,59,0.00,,,0.00,Wunderground v.1.15,2013-08-12 17:45:00,
2013-08-12 13:46:00,90.2,74.9,29.99,WNW,294,0.0,2.0,61,0.00,,,0.00,Wunderground v.1.15,2013-08-12 17:46:00,
2013-08-12 13:49:00,90.3,73.5,29.99,WSW,243,1.0,2.0,58,0.00,,,0.00,Wunderground v.1.15,2013-08-12 17:49:00,
2013-08-12 13:50:00,90.3,73.5,29.99,WSW,244,1.0,1.0,58,0.00,,,0.00,Wunderground v.1.15,2013-08-12 17:50:00,
2013-08-12 13:52:00,90.4,74.1,29.99,WSW,246,1.0,1.0,59,0.00,,,0.00,Wunderground v.1.15,2013-08-12 17:52:00,
2013-08-12 13:54:00,90.3,74.0,29.99,WSW,246,0.0,1.0,59,0.00,,,0.00,Wunderground v.1.15,2013-08-12 17:54:00,
2013-08-12 13:55:00,90.5,75.2,29.99,WSW,245,0.0,1.0,61,0.00,,,0.00,Wunderground v.1.15,2013-08-12 17:55:00,
2013-08-12 13:57:00,90.6,75.3,29.99,WSW,246,1.0,1.0,61,0.00,,,0.00,Wunderground v.1.15,2013-08-12 17:57:00,
2013-08-12 13:59:00,90.9,76.1,29.99,SW,225,1.0,1.0,62,0.00,,,0.00,Wunderground v.1.15,2013-08-12 17:59:00,
2013-08-12 14:00:00,90.8,74.5,29.99,SW,225,1.0,1.0,59,0.00,,,0.00,Wunderground v.1.15,2013-08-12 18:00:00,
2013-08-12 14:02:00,90.8,75.0,29.99,WNW,294,0.0,2.0,60,0.00,,,0.00,Wunderground v.1.15,2013-08-12 18:02:00,
2013-08-12 14:04:00,90.7,75.4,29.99,SSW,211,0.0,4.0,61,0.00,,,0.00,Wunderground v.1.15,2013-08-12 18:04:00,
2013-08-12 14:05:00,90.7,77.3,29.99,WSW,243,0.0,4.0,65,0.00,,,0.00,Wunderground v.1.15,2013-08-12 18:05:00,
2013-08-12 14:07:00,90.6,76.7,29.99,SW,222,1.0,4.0,64,0.00,,,0.00,Wunderground v.1.15,2013-08-12 18:07:00,
2013-08-12 14:09:00,90.6,76.3,29.98,SW,222,0.0,4.0,63,0.00,,,0.00,Wunderground v.1.15,2013-08-12 18:09:00,
2013-08-12 14:10:00,90.6,76.3,29.98,SW,228,1.0,2.0,63,0.00,,,0.00,Wunderground v.1.15,2013-08-12 18:10:00,
2013-08-12 14:11:00,90.6,74.8,29.98,SW,222,2.0,2.0,60,0.00,,,0.00,Wunderground v.1.15,2013-08-12 18:11:00,
2013-08-12 14:12:00,90.3,74.5,29.98,SW,232,0.0,3.0,60,0.00,,,0.00,Wunderground v.1.15,2013-08-12 18:12:00,
2013-08-12 14:16:00,90.5,77.1,29.98,SW,232,0.0,3.0,65,0.00,,,0.00,Wunderground v.1.15,2013-08-12 18:16:00,
2013-08-12 14:17:00,90.6,75.8,29.98,SW,229,0.0,3.0,62,0.00,,,0.00,Wunderground v.1.15,2013-08-12 18:17:00,
2013-08-12 14:21:00,91.0,77.6,29.98,SW,232,0.0,1.0,65,0.00,,,0.00,Wunderground v.1.15,2013-08-12 18:21:00,
2013-08-12 14:22:00,91.3,77.9,29.98,SW,232,0.0,1.0,65,0.00,,,0.00,Wunderground v.1.15,2013-08-12 18:22:00,
2013-08-12 14:23:00,91.6,79.1,29.98,SW,232,0.0,1.0,67,0.00,,,0.00,Wunderground v.1.15,2013-08-12 18:23:00,
2013-08-12 14:26:00,91.9,77.0,29.97,SW,231,0.0,1.0,62,0.00,,,0.00,Wunderground v.1.15,2013-08-12 18:26:00,
2013-08-12 14:27:00,91.9,77.0,29.97,SW,232,0.0,1.0,62,0.00,,,0.00,Wunderground v.1.15,2013-08-12 18:27:00,
2013-08-12 14:29:00,92.3,79.8,29.97,WNW,288,0.0,1.0,67,0.00,,,0.00,Wunderground v.1.15,2013-08-12 18:29:00,
2013-08-12 14:31:00,92.2,75.8,29.97,SW,231,1.0,2.0,59,0.00,,,0.00,Wunderground v.1.15,2013-08-12 18:31:00,
2013-08-12 14:32:00,92.1,77.7,29.97,SW,232,0.0,2.0,63,0.00,,,0.00,Wunderground v.1.15,2013-08-12 18:32:00,
2013-08-12 14:34:00,92.1,76.2,29.97,SW,232,1.0,2.0,60,0.00,,,0.00,Wunderground v.1.15,2013-08-12 18:34:00,
2013-08-12 14:37:00,91.9,75.5,29.97,SSW,201,1.0,2.0,59,0.00,,,0.00,Wunderground v.1.15,2013-08-12 18:37:00,
2013-08-12 14:39:00,91.7,75.3,29.97,SSW,213,0.0,3.0,59,0.00,,,0.00,Wunderground v.1.15,2013-08-12 18:39:00,
2013-08-12 14:42:00,91.3,73.9,29.97,West,270,0.0,2.0,57,0.00,,,0.00,Wunderground v.1.15,2013-08-12 18:42:00,
2013-08-12 14:44:00,91.2,75.4,29.97,WSW,252,0.0,2.0,60,0.00,,,0.00,Wunderground v.1.15,2013-08-12 18:44:00,
2013-08-12 14:45:00,91.3,74.4,29.97,SW,215,0.0,2.0,58,0.00,,,0.00,Wunderground v.1.15,2013-08-12 18:45:00,
2013-08-12 14:47:00,91.4,76.1,29.96,NE,53,0.0,2.0,61,0.00,,,0.00,Wunderground v.1.15,2013-08-12 18:47:00,
2013-08-12 14:48:00,91.4,76.1,29.96,NE,53,0.0,2.0,61,0.00,,,0.00,Wunderground v.1.15,2013-08-12 18:48:00,
2013-08-12 14:49:00,91.3,76.5,29.96,NE,52,0.0,2.0,62,0.00,,,0.00,Wunderground v.1.15,2013-08-12 18:49:00,
2013-08-12 14:50:00,91.2,75.9,29.96,NE,51,0.0,1.0,61,0.00,,,0.00,Wunderground v.1.15,2013-08-12 18:50:00,
2013-08-12 14:52:00,91.3,76.0,29.96,NE,53,0.0,1.0,61,0.00,,,0.00,Wunderground v.1.15,2013-08-12 18:52:00,
2013-08-12 14:53:00,91.3,75.5,29.96,NE,54,0.0,1.0,60,0.00,,,0.00,Wunderground v.1.15,2013-08-12 18:53:00,
2013-08-12 14:54:00,91.4,76.1,29.96,NE,54,0.0,1.0,61,0.00,,,0.00,Wunderground v.1.15,2013-08-12 18:54:00,
2013-08-12 14:56:00,91.5,73.6,29.96,North,355,2.0,2.0,56,0.00,,,0.00,Wunderground v.1.15,2013-08-12 18:56:00,
2013-08-12 14:57:00,91.5,73.6,29.96,North,355,0.0,2.0,56,0.00,,,0.00,Wunderground v.1.15,2013-08-12 18:57:00,
2013-08-12 14:58:00,91.4,73.5,29.96,North,355,0.0,2.0,56,0.00,,,0.00,Wunderground v.1.15,2013-08-12 18:58:00,
2013-08-12 14:59:00,91.3,73.4,29.96,North,355,0.0,2.0,56,0.00,,,0.00,Wunderground v.1.15,2013-08-12 18:59:00,
2013-08-12 15:01:00,91.2,75.9,29.96,North,355,0.0,0.0,61,0.00,,,0.00,Wunderground v.1.15,2013-08-12 19:01:00,
2013-08-12 15:02:00,91.1,75.8,29.96,North,355,0.0,0.0,61,0.00,,,0.00,Wunderground v.1.15,2013-08-12 19:02:00,
2013-08-12 15:03:00,91.1,76.3,29.96,North,355,0.0,0.0,62,0.00,,,0.00,Wunderground v.1.15,2013-08-12 19:03:00,
2013-08-12 15:04:00,90.9,75.6,29.95,North,359,0.0,0.0,61,0.00,,,0.00,Wunderground v.1.15,2013-08-12 19:04:00,
2013-08-12 15:06:00,90.5,76.7,29.95,North,359,0.0,0.0,64,0.00,,,0.00,Wunderground v.1.15,2013-08-12 19:06:00,
2013-08-12 15:07:00,90.4,76.6,29.95,North,356,0.0,0.0,64,0.00,,,0.00,Wunderground v.1.15,2013-08-12 19:07:00,
2013-08-12 15:08:00,90.3,76.9,29.95,North,356,0.0,0.0,65,0.00,,,0.00,Wunderground v.1.15,2013-08-12 19:08:00,
2013-08-12 15:10:00,89.9,77.5,29.95,WSW,249,0.0,0.0,67,0.00,,,0.00,Wunderground v.1.15,2013-08-12 19:10:00,
2013-08-12 15:12:00,89.4,74.7,29.95,SW,233,0.0,0.0,62,0.00,,,0.00,Wunderground v.1.15,2013-08-12 19:12:00,
2013-08-12 15:13:00,89.2,75.0,29.95,SW,233,0.0,0.0,63,0.00,,,0.00,Wunderground v.1.15,2013-08-12 19:13:00,
2013-08-12 15:15:00,88.6,74.9,29.95,SW,214,0.0,3.0,64,0.00,,,0.00,Wunderground v.1.15,2013-08-12 19:15:00,
2013-08-12 15:17:00,88.3,75.5,29.95,SW,215,0.0,3.0,66,0.00,,,0.00,Wunderground v.1.15,2013-08-12 19:17:00,
2013-08-12 15:18:00,88.3,75.9,29.95,SW,215,0.0,3.0,67,0.00,,,0.00,Wunderground v.1.15,2013-08-12 19:18:00,
2013-08-12 15:20:00,88.0,75.7,29.95,SW,215,0.0,0.0,67,0.00,,,0.00,Wunderground v.1.15,2013-08-12 19:20:00,
2013-08-12 15:22:00,87.6,75.3,29.95,SW,215,0.0,0.0,67,0.00,,,0.00,Wunderground v.1.15,2013-08-12 19:22:00,
2013-08-12 15:23:00,87.4,75.1,29.95,SW,215,0.0,0.0,67,0.00,,,0.00,Wunderground v.1.15,2013-08-12 19:23:00,
2013-08-12 15:25:00,86.9,75.1,29.94,SW,215,0.0,0.0,68,0.00,,,0.00,Wunderground v.1.15,2013-08-12 19:25:00,
2013-08-12 15:27:00,86.3,74.9,29.94,SW,215,0.0,0.0,69,0.00,,,0.00,Wunderground v.1.15,2013-08-12 19:27:00,
2013-08-12 15:28:00,86.2,75.3,29.94,SW,215,0.0,0.0,70,0.00,,,0.00,Wunderground v.1.15,2013-08-12 19:28:00,
2013-08-12 15:29:00,86.1,75.2,29.94,SW,215,0.0,0.0,70,0.00,,,0.00,Wunderground v.1.15,2013-08-12 19:29:00,
2013-08-12 15:30:00,85.9,75.8,29.94,SW,215,0.0,0.0,72,0.00,,,0.00,Wunderground v.1.15,2013-08-12 19:30:00,
2013-08-12 15:32:00,85.8,76.1,29.94,SW,215,0.0,0.0,73,0.00,,,0.00,Wunderground v.1.15,2013-08-12 19:32:00,
2013-08-12 15:33:00,85.8,76.1,29.94,SW,215,0.0,0.0,73,0.00,,,0.00,Wunderground v.1.15,2013-08-12 19:33:00,
2013-08-12 15:34:00,85.8,75.7,29.94,SW,215,0.0,0.0,72,0.00,,,0.00,Wunderground v.1.15,2013-08-12 19:34:00,
2013-08-12 15:35:00,85.6,75.9,29.94,SW,215,0.0,0.0,73,0.00,,,0.00,Wunderground v.1.15,2013-08-12 19:35:00,
2013-08-12 15:37:00,85.5,76.3,29.94,SW,215,0.0,0.0,74,0.00,,,0.00,Wunderground v.1.15,2013-08-12 19:37:00,
2013-08-12 15:38:00,85.5,76.3,29.94,SW,215,0.0,0.0,74,0.00,,,0.00,Wunderground v.1.15,2013-08-12 19:38:00,
2013-08-12 15:39:00,85.4,75.8,29.94,SW,215,0.0,0.0,73,0.00,,,0.00,Wunderground v.1.15,2013-08-12 19:39:00,
2013-08-12 15:40:00,85.4,76.2,29.94,SW,215,0.0,0.0,74,0.00,,,0.00,Wunderground v.1.15,2013-08-12 19:40:00,
2013-08-12 15:42:00,85.4,77.8,29.94,SW,236,1.0,1.0,78,0.00,,,0.00,Wunderground v.1.15,2013-08-12 19:42:00,
2013-08-12 15:43:00,85.3,77.7,29.94,SW,236,0.0,1.0,78,0.00,,,0.00,Wunderground v.1.15,2013-08-12 19:43:00,
2013-08-12 15:45:00,85.1,76.7,29.94,SW,236,0.0,1.0,76,0.00,,,0.00,Wunderground v.1.15,2013-08-12 19:45:00,
2013-08-12 15:46:00,85.1,77.5,29.94,SW,236,0.0,1.0,78,0.00,,,0.00,Wunderground v.1.15,2013-08-12 19:46:00,
2013-08-12 15:48:00,84.8,76.4,29.93,SW,236,0.0,1.0,76,0.00,,,0.00,Wunderground v.1.15,2013-08-12 19:48:00,
2013-08-12 15:49:00,84.8,76.4,29.93,SW,236,0.0,1.0,76,0.00,,,0.00,Wunderground v.1.15,2013-08-12 19:49:00,
2013-08-12 15:50:00,84.7,75.9,29.93,SW,236,0.0,0.0,75,0.00,,,0.00,Wunderground v.1.15,2013-08-12 19:50:00,
2013-08-12 15:51:00,84.7,76.3,29.94,SW,236,0.0,0.0,76,0.00,,,0.00,Wunderground v.1.15,2013-08-12 19:51:00,
2013-08-12 15:53:00,84.4,77.2,29.94,WSW,257,2.0,2.0,79,0.00,,,0.00,Wunderground v.1.15,2013-08-12 19:53:00,
2013-08-12 15:54:00,84.1,76.9,29.94,WSW,257,0.0,2.0,79,0.00,,,0.00,Wunderground v.1.15,2013-08-12 19:54:00,
2013-08-12 15:56:00,83.5,75.5,29.94,SW,234,0.0,2.0,77,0.00,,,0.00,Wunderground v.1.15,2013-08-12 19:56:00,
2013-08-12 15:58:00,83.3,75.7,29.94,SW,222,0.0,2.0,78,0.00,,,0.00,Wunderground v.1.15,2013-08-12 19:58:00,
2013-08-12 15:59:00,83.3,76.5,29.94,SW,222,0.0,2.0,80,0.00,,,0.00,Wunderground v.1.15,2013-08-12 19:59:00,
2013-08-12 16:01:00,83.1,76.7,29.94,SW,228,0.0,0.0,81,0.00,,,0.00,Wunderground v.1.15,2013-08-12 20:01:00,
2013-08-12 16:02:00,83.1,76.3,29.95,WSW,250,1.0,1.0,80,0.00,,,0.00,Wunderground v.1.15,2013-08-12 20:02:00,
2013-08-12 16:03:00,82.9,75.7,29.95,WSW,251,1.0,1.0,79,0.00,,,0.00,Wunderground v.1.15,2013-08-12 20:03:00,
2013-08-12 16:04:00,82.8,75.6,29.95,SW,228,1.0,2.0,79,0.00,,,0.00,Wunderground v.1.15,2013-08-12 20:04:00,
2013-08-12 16:06:00,82.4,76.0,29.95,SW,215,2.0,3.0,81,0.00,,,0.00,Wunderground v.1.15,2013-08-12 20:06:00,
2013-08-12 16:08:00,82.1,76.1,29.95,WSW,238,2.0,4.0,82,0.00,,,0.00,Wunderground v.1.15,2013-08-12 20:08:00,
2013-08-12 16:09:00,81.8,75.8,29.95,SW,228,2.0,4.0,82,0.00,,,0.00,Wunderground v.1.15,2013-08-12 20:09:00,
2013-08-12 16:11:00,81.2,75.5,29.95,SW,224,3.0,5.0,83,0.00,,,0.00,Wunderground v.1.15,2013-08-12 20:11:00,
2013-08-12 16:13:00,80.7,75.1,29.95,WSW,251,2.0,6.0,83,0.00,,,0.00,Wunderground v.1.15,2013-08-12 20:13:00,
2013-08-12 16:14:00,80.5,75.2,29.95,SW,235,2.0,6.0,84,0.00,,,0.00,Wunderground v.1.15,2013-08-12 20:14:00,
2013-08-12 16:15:00,80.4,75.1,29.94,WSW,251,0.0,6.0,84,0.00,,,0.00,Wunderground v.1.15,2013-08-12 20:15:00,
2013-08-12 16:17:00,80.1,74.8,29.94,SW,225,0.0,6.0,84,0.00,,,0.00,Wunderground v.1.15,2013-08-12 20:17:00,
2013-08-12 16:18:00,79.9,75.0,29.94,WSW,258,0.0,6.0,85,0.00,,,0.00,Wunderground v.1.15,2013-08-12 20:18:00,
2013-08-12 16:19:00,79.9,75.3,29.94,West,259,0.0,6.0,86,0.00,,,0.00,Wunderground v.1.15,2013-08-12 20:19:00,
2013-08-12 16:20:00,79.9,75.3,29.94,West,259,0.0,1.0,86,0.00,,,0.00,Wunderground v.1.15,2013-08-12 20:20:00,
2013-08-12 16:22:00,79.8,75.2,29.94,SW,235,0.0,3.0,86,0.00,,,0.00,Wunderground v.1.15,2013-08-12 20:22:00,
2013-08-12 16:24:00,79.7,74.8,29.94,SW,228,0.0,3.0,85,0.00,,,0.00,Wunderground v.1.15,2013-08-12 20:24:00,
2013-08-12 16:25:00,79.7,74.8,29.94,WSW,243,0.0,3.0,85,0.00,,,0.00,Wunderground v.1.15,2013-08-12 20:25:00,
2013-08-12 16:27:00,79.7,75.1,29.94,WSW,243,0.0,3.0,86,0.00,,,0.00,Wunderground v.1.15,2013-08-12 20:27:00,
2013-08-12 16:29:00,79.7,75.5,29.94,WSW,243,0.0,3.0,87,0.00,,,0.00,Wunderground v.1.15,2013-08-12 20:29:00,
2013-08-12 16:30:00,79.7,75.1,29.94,WSW,243,0.0,0.0,86,0.00,,,0.00,Wunderground v.1.15,2013-08-12 20:30:00,
2013-08-12 16:33:00,79.7,75.8,29.94,WSW,243,0.0,0.0,88,0.00,,,0.00,Wunderground v.1.15,2013-08-12 20:33:00,
2013-08-12 16:34:00,79.7,75.8,29.94,WSW,243,0.0,0.0,88,0.00,,,0.00,Wunderground v.1.15,2013-08-12 20:34:00,
2013-08-12 16:35:00,79.7,75.8,29.94,WSW,243,0.0,0.0,88,0.00,,,0.00,Wunderground v.1.15,2013-08-12 20:35:00,
2013-08-12 16:39:00,79.4,75.5,29.95,East,98,0.0,0.0,88,0.00,,,0.00,Wunderground v.1.15,2013-08-12 20:39:00,
2013-08-12 16:40:00,79.3,75.4,29.95,East,97,0.0,0.0,88,0.00,,,0.00,Wunderground v.1.15,2013-08-12 20:40:00,
2013-08-12 16:44:00,78.9,75.0,29.95,East,96,0.0,1.0,88,0.00,,,0.00,Wunderground v.1.15,2013-08-12 20:44:00,
2013-08-12 16:45:00,78.8,74.9,29.95,ENE,76,0.0,1.0,88,0.00,,,0.00,Wunderground v.1.15,2013-08-12 20:45:00,
2013-08-12 16:49:00,78.5,75.0,29.95,ENE,76,0.0,1.0,89,0.00,,,0.00,Wunderground v.1.15,2013-08-12 20:49:00,
2013-08-12 16:50:00,78.4,74.5,29.95,ENE,76,0.0,0.0,88,0.00,,,0.00,Wunderground v.1.15,2013-08-12 20:50:00,
2013-08-12 16:51:00,78.4,74.9,29.95,ENE,76,1.0,1.0,89,0.00,,,0.00,Wunderground v.1.15,2013-08-12 20:51:00,
2013-08-12 16:54:00,78.3,74.8,29.95,ENE,76,0.0,1.0,89,0.00,,,0.00,Wunderground v.1.15,2013-08-12 20:54:00,
2013-08-12 16:55:00,78.2,75.0,29.95,ENE,76,0.0,1.0,90,0.00,,,0.00,Wunderground v.1.15,2013-08-12 20:55:00,
2013-08-12 16:56:00,78.2,75.0,29.95,ENE,76,0.0,1.0,90,0.00,,,0.00,Wunderground v.1.15,2013-08-12 20:56:00,
2013-08-12 17:00:00,77.9,74.4,29.95,ENE,77,0.0,0.0,89,0.00,,,0.00,Wunderground v.1.15,2013-08-12 21:00:00,
2013-08-12 17:01:00,77.9,74.7,29.95,WSW,248,0.0,0.0,90,0.00,,,0.00,Wunderground v.1.15,2013-08-12 21:01:00,
2013-08-12 17:05:00,77.6,74.8,29.95,WSW,239,0.0,0.0,91,0.00,,,0.01,Wunderground v.1.15,2013-08-12 21:05:00,
2013-08-12 17:06:00,77.6,74.8,29.95,WSW,239,0.0,0.0,91,0.00,,,0.01,Wunderground v.1.15,2013-08-12 21:06:00,
2013-08-12 17:10:00,77.3,74.1,29.96,SW,214,2.0,2.0,90,0.00,,,0.01,Wunderground v.1.15,2013-08-12 21:10:00,
2013-08-12 17:11:00,77.3,74.1,29.96,SW,221,2.0,2.0,90,0.00,,,0.01,Wunderground v.1.15,2013-08-12 21:11:00,
2013-08-12 17:15:00,76.8,74.0,29.96,WSW,253,0.0,2.0,91,0.00,,,0.01,Wunderground v.1.15,2013-08-12 21:15:00,
2013-08-12 17:16:00,76.8,74.0,29.96,SW,218,0.0,2.0,91,0.00,,,0.01,Wunderground v.1.15,2013-08-12 21:16:00,
2013-08-12 17:20:00,76.5,73.7,29.95,SSE,168,0.0,0.0,91,0.00,,,0.01,Wunderground v.1.15,2013-08-12 21:20:00,
2013-08-12 17:21:00,76.5,73.7,29.95,SW,220,0.0,1.0,91,0.00,,,0.01,Wunderground v.1.15,2013-08-12 21:21:00,
2013-08-12 17:26:00,76.1,73.3,29.96,WSW,248,1.0,2.0,91,0.00,,,0.01,Wunderground v.1.15,2013-08-12 21:26:00,
2013-08-12 17:27:00,76.0,73.2,29.96,WSW,248,0.0,3.0,91,0.00,,,0.01,Wunderground v.1.15,2013-08-12 21:27:00,
2013-08-12 17:31:00,75.4,71.9,29.96,SW,224,1.0,4.0,89,0.00,,,0.01,Wunderground v.1.15,2013-08-12 21:31:00,
2013-08-12 17:32:00,75.3,72.2,29.96,WSW,246,1.0,4.0,90,0.00,,,0.01,Wunderground v.1.15,2013-08-12 21:32:00,
2013-08-12 17:36:00,74.8,71.7,29.95,SW,214,2.0,4.0,90,0.00,,,0.01,Wunderground v.1.15,2013-08-12 21:36:00,
2013-08-12 17:37:00,74.7,71.6,29.95,SW,226,1.0,4.0,90,0.00,,,0.01,Wunderground v.1.15,2013-08-12 21:37:00,
2013-08-12 17:41:00,74.2,71.1,29.95,WSW,240,1.0,3.0,90,0.00,,,0.02,Wunderground v.1.15,2013-08-12 21:41:00,
2013-08-12 17:42:00,74.2,71.1,29.95,WSW,240,1.0,3.0,90,0.00,,,0.02,Wunderground v.1.15,2013-08-12 21:42:00,
2013-08-12 17:47:00,73.8,70.7,29.96,WSW,248,1.0,4.0,90,0.00,,,0.02,Wunderground v.1.15,2013-08-12 21:47:00,
2013-08-12 17:52:00,73.5,70.4,29.96,WSW,241,2.0,4.0,90,0.00,,,0.02,Wunderground v.1.15,2013-08-12 21:52:00,
2013-08-12 17:57:00,73.4,70.9,29.95,SW,222,2.0,4.0,92,0.00,,,0.03,Wunderground v.1.15,2013-08-12 21:57:00,
2013-08-12 17:58:00,73.4,70.9,29.95,SSW,210,0.0,4.0,92,0.00,,,0.03,Wunderground v.1.15,2013-08-12 21:58:00,
2013-08-12 17:59:00,73.4,70.9,29.94,SSW,212,2.0,4.0,92,0.00,,,0.03,Wunderground v.1.15,2013-08-12 21:59:00,
2013-08-12 18:02:00,73.4,71.3,29.94,SSW,197,2.0,3.0,93,0.00,,,0.03,Wunderground v.1.15,2013-08-12 22:02:00,
2013-08-12 18:03:00,73.4,71.3,29.94,SSW,203,2.0,3.0,93,0.00,,,0.03,Wunderground v.1.15,2013-08-12 22:03:00,
2013-08-12 18:05:00,73.4,70.9,29.94,SSW,212,2.0,4.0,92,0.00,,,0.03,Wunderground v.1.15,2013-08-12 22:05:00,
2013-08-12 18:07:00,73.4,71.3,29.94,West,260,2.0,6.0,93,0.00,,,0.03,Wunderground v.1.15,2013-08-12 22:07:00,
2013-08-12 18:08:00,73.3,70.8,29.94,SW,215,2.0,6.0,92,0.00,,,0.03,Wunderground v.1.15,2013-08-12 22:08:00,
2013-08-12 18:10:00,73.2,70.7,29.94,SSW,212,2.0,4.0,92,0.00,,,0.03,Wunderground v.1.15,2013-08-12 22:10:00,
2013-08-12 18:12:00,73.2,70.7,29.94,SW,214,2.0,4.0,92,0.00,,,0.03,Wunderground v.1.15,2013-08-12 22:12:00,
2013-08-12 18:13:00,73.2,70.7,29.94,SSW,206,2.0,4.0,92,0.00,,,0.03,Wunderground v.1.15,2013-08-12 22:13:00,
2013-08-12 18:14:00,73.1,70.6,29.94,SSW,207,1.0,4.0,92,0.00,,,0.03,Wunderground v.1.15,2013-08-12 22:14:00,
2013-08-12 18:15:00,73.0,70.5,29.94,SW,229,1.0,4.0,92,0.00,,,0.03,Wunderground v.1.15,2013-08-12 22:15:00,
2013-08-12 18:17:00,73.0,70.5,29.94,SW,222,3.0,4.0,92,0.00,,,0.03,Wunderground v.1.15,2013-08-12 22:17:00,
2013-08-12 18:18:00,73.0,70.5,29.94,WSW,238,2.0,4.0,92,0.00,,,0.03,Wunderground v.1.15,2013-08-12 22:18:00,
2013-08-12 18:19:00,72.9,70.4,29.94,SW,225,2.0,4.0,92,0.00,,,0.03,Wunderground v.1.15,2013-08-12 22:19:00,
2013-08-12 18:21:00,72.9,70.4,29.93,SW,228,1.0,2.0,92,0.00,,,0.03,Wunderground v.1.15,2013-08-12 22:21:00,
2013-08-12 18:22:00,72.9,70.4,29.93,SW,228,1.0,2.0,92,0.00,,,0.03,Wunderground v.1.15,2013-08-12 22:22:00,
2013-08-12 18:23:00,72.9,70.4,29.93,SW,229,0.0,2.0,92,0.00,,,0.03,Wunderground v.1.15,2013-08-12 22:23:00,
2013-08-12 18:25:00,72.9,70.4,29.93,SW,228,0.0,2.0,92,0.00,,,0.03,Wunderground v.1.15,2013-08-12 22:25:00,
2013-08-12 18:26:00,72.9,70.4,29.93,SW,228,0.0,2.0,92,0.00,,,0.03,Wunderground v.1.15,2013-08-12 22:26:00,
2013-08-12 18:28:00,72.9,71.1,29.93,SW,236,1.0,2.0,94,0.00,,,0.03,Wunderground v.1.15,2013-08-12 22:28:00,
2013-08-12 18:29:00,72.9,71.1,29.93,West,268,1.0,2.0,94,0.00,,,0.03,Wunderground v.1.15,2013-08-12 22:29:00,
2013-08-12 18:30:00,72.8,71.0,29.93,West,263,0.0,1.0,94,0.00,,,0.03,Wunderground v.1.15,2013-08-12 22:30:00,
2013-08-12 18:31:00,72.7,70.6,29.93,West,263,0.0,1.0,93,0.00,,,0.03,Wunderground v.1.15,2013-08-12 22:31:00,
2013-08-12 18:33:00,72.5,70.4,29.93,WSW,250,1.0,1.0,93,0.00,,,0.03,Wunderground v.1.15,2013-08-12 22:33:00,
2013-08-12 18:34:00,72.4,70.3,29.93,WSW,250,0.0,1.0,93,0.00,,,0.03,Wunderground v.1.15,2013-08-12 22:34:00,
2013-08-12 18:35:00,72.4,69.9,29.92,WSW,250,0.0,1.0,92,0.00,,,0.03,Wunderground v.1.15,2013-08-12 22:35:00,
2013-08-12 18:36:00,72.3,69.8,29.92,WSW,250,0.0,1.0,92,0.00,,,0.03,Wunderground v.1.15,2013-08-12 22:36:00,
2013-08-12 18:38:00,72.4,69.9,29.92,SW,231,1.0,2.0,92,0.00,,,0.03,Wunderground v.1.15,2013-08-12 22:38:00,
2013-08-12 18:39:00,72.4,69.9,29.92,SW,231,1.0,2.0,92,0.00,,,0.03,Wunderground v.1.15,2013-08-12 22:39:00,
2013-08-12 18:41:00,72.5,70.0,29.92,SW,228,0.0,0.0,92,0.00,,,0.03,Wunderground v.1.15,2013-08-12 22:41:00,
2013-08-12 18:44:00,72.6,70.5,29.92,SW,229,1.0,1.0,93,0.00,,,0.03,Wunderground v.1.15,2013-08-12 22:44:00,
2013-08-12 18:46:00,72.7,70.6,29.92,SW,229,0.0,1.0,93,0.00,,,0.03,Wunderground v.1.15,2013-08-12 22:46:00,
2013-08-12 18:49:00,72.7,70.6,29.92,SW,229,0.0,1.0,93,0.00,,,0.03,Wunderground v.1.15,2013-08-12 22:49:00,
2013-08-12 18:50:00,72.6,70.5,29.92,SW,229,0.0,0.0,93,0.00,,,0.03,Wunderground v.1.15,2013-08-12 22:50:00,
2013-08-12 18:51:00,72.6,70.8,29.92,SW,229,0.0,0.0,94,0.00,,,0.03,Wunderground v.1.15,2013-08-12 22:51:00,
2013-08-12 18:54:00,72.4,70.6,29.92,SW,229,0.0,0.0,94,0.00,,,0.03,Wunderground v.1.15,2013-08-12 22:54:00,
2013-08-12 18:55:00,72.4,70.6,29.92,SW,229,0.0,0.0,94,0.00,,,0.03,Wunderground v.1.15,2013-08-12 22:55:00,
2013-08-12 18:56:00,72.4,70.6,29.92,SW,229,0.0,0.0,94,0.00,,,0.03,Wunderground v.1.15,2013-08-12 22:56:00,
2013-08-12 18:59:00,72.4,70.6,29.92,SW,229,0.0,0.0,94,0.00,,,0.03,Wunderground v.1.15,2013-08-12 22:59:00,
2013-08-12 19:00:00,72.4,70.6,29.92,SW,229,0.0,0.0,94,0.00,,,0.03,Wunderground v.1.15,2013-08-12 23:00:00,
2013-08-12 19:01:00,72.4,70.9,29.92,SW,229,0.0,0.0,95,0.00,,,0.03,Wunderground v.1.15,2013-08-12 23:01:00,
2013-08-12 19:02:00,72.4,70.9,29.92,SW,229,0.0,0.0,95,0.00,,,0.03,Wunderground v.1.15,2013-08-12 23:02:00,
2013-08-12 19:04:00,72.4,70.9,29.92,SW,229,0.0,0.0,95,0.00,,,0.03,Wunderground v.1.15,2013-08-12 23:04:00,
2013-08-12 19:05:00,72.4,70.6,29.92,SW,229,0.0,0.0,94,0.00,,,0.03,Wunderground v.1.15,2013-08-12 23:05:00,
2013-08-12 19:06:00,72.4,70.9,29.92,SW,229,0.0,0.0,95,0.00,,,0.03,Wunderground v.1.15,2013-08-12 23:06:00,
2013-08-12 19:07:00,72.4,70.9,29.92,SW,229,0.0,0.0,95,0.00,,,0.03,Wunderground v.1.15,2013-08-12 23:07:00,
2013-08-12 19:09:00,72.5,71.0,29.92,SW,229,0.0,0.0,95,0.00,,,0.03,Wunderground v.1.15,2013-08-12 23:09:00,
2013-08-12 19:10:00,72.5,71.0,29.92,SW,229,0.0,0.0,95,0.00,,,0.03,Wunderground v.1.15,2013-08-12 23:10:00,
2013-08-12 19:11:00,72.5,71.0,29.92,SW,229,0.0,0.0,95,0.00,,,0.03,Wunderground v.1.15,2013-08-12 23:11:00,
2013-08-12 19:12:00,72.5,71.0,29.92,SW,229,0.0,0.0,95,0.00,,,0.03,Wunderground v.1.15,2013-08-12 23:12:00,
2013-08-12 19:15:00,72.6,71.4,29.92,SW,229,0.0,0.0,96,0.00,,,0.03,Wunderground v.1.15,2013-08-12 23:15:00,
2013-08-12 19:17:00,72.6,71.1,29.93,SW,229,0.0,0.0,95,0.00,,,0.03,Wunderground v.1.15,2013-08-12 23:17:00,
2013-08-12 19:20:00,72.6,71.4,29.93,SW,229,0.0,0.0,96,0.00,,,0.03,Wunderground v.1.15,2013-08-12 23:20:00,
2013-08-12 19:21:00,72.6,71.4,29.93,SW,229,0.0,0.0,96,0.00,,,0.03,Wunderground v.1.15,2013-08-12 23:21:00,
2013-08-12 19:22:00,72.6,71.4,29.93,SW,229,0.0,0.0,96,0.00,,,0.03,Wunderground v.1.15,2013-08-12 23:22:00,
2013-08-12 19:25:00,72.7,71.5,29.93,SW,229,0.0,0.0,96,0.00,,,0.03,Wunderground v.1.15,2013-08-12 23:25:00,
2013-08-12 19:26:00,72.7,71.5,29.93,SW,229,0.0,0.0,96,0.00,,,0.03,Wunderground v.1.15,2013-08-12 23:26:00,
2013-08-12 19:27:00,72.8,71.6,29.93,SW,229,0.0,0.0,96,0.00,,,0.03,Wunderground v.1.15,2013-08-12 23:27:00,
2013-08-12 19:30:00,72.9,71.7,29.93,SW,229,0.0,0.0,96,0.00,,,0.03,Wunderground v.1.15,2013-08-12 23:30:00,
2013-08-12 19:31:00,72.9,71.7,29.93,SW,229,0.0,0.0,96,0.00,,,0.03,Wunderground v.1.15,2013-08-12 23:31:00,
2013-08-12 19:32:00,72.8,71.6,29.93,SW,229,0.0,0.0,96,0.00,,,0.03,Wunderground v.1.15,2013-08-12 23:32:00,
2013-08-12 19:33:00,72.8,71.6,29.93,SW,230,0.0,0.0,96,0.00,,,0.03,Wunderground v.1.15,2013-08-12 23:33:00,
2013-08-12 19:35:00,72.8,71.6,29.93,SW,229,0.0,0.0,96,0.00,,,0.03,Wunderground v.1.15,2013-08-12 23:35:00,
2013-08-12 19:36:00,72.8,71.6,29.93,SW,229,0.0,0.0,96,0.00,,,0.03,Wunderground v.1.15,2013-08-12 23:36:00,
2013-08-12 19:38:00,72.7,71.5,29.93,SW,229,0.0,0.0,96,0.00,,,0.03,Wunderground v.1.15,2013-08-12 23:38:00,
2013-08-12 19:40:00,72.8,71.6,29.93,SW,229,0.0,0.0,96,0.00,,,0.03,Wunderground v.1.15,2013-08-12 23:40:00,
2013-08-12 19:41:00,72.8,71.6,29.93,SW,229,0.0,0.0,96,0.00,,,0.03,Wunderground v.1.15,2013-08-12 23:41:00,
2013-08-12 19:43:00,72.8,71.6,29.93,SW,229,0.0,0.0,96,0.00,,,0.03,Wunderground v.1.15,2013-08-12 23:43:00,
2013-08-12 19:44:00,72.7,71.5,29.93,SW,229,0.0,0.0,96,0.00,,,0.03,Wunderground v.1.15,2013-08-12 23:44:00,
2013-08-12 19:45:00,72.6,71.1,29.93,SW,229,0.0,0.0,95,0.00,,,0.03,Wunderground v.1.15,2013-08-12 23:45:00,
2013-08-12 19:47:00,72.5,71.0,29.93,SW,229,0.0,0.0,95,0.00,,,0.03,Wunderground v.1.15,2013-08-12 23:47:00,
2013-08-12 19:48:00,72.5,71.0,29.93,SW,229,0.0,0.0,95,0.00,,,0.03,Wunderground v.1.15,2013-08-12 23:48:00,
2013-08-12 19:49:00,72.5,71.0,29.93,SW,229,0.0,0.0,95,0.00,,,0.03,Wunderground v.1.15,2013-08-12 23:49:00,
2013-08-12 19:50:00,72.4,70.9,29.93,SW,229,0.0,0.0,95,0.00,,,0.03,Wunderground v.1.15,2013-08-12 23:50:00,
2013-08-12 19:52:00,72.4,70.9,29.94,SSW,205,0.0,0.0,95,0.00,,,0.03,Wunderground v.1.15,2013-08-12 23:52:00,
2013-08-12 19:53:00,72.5,71.3,29.94,West,267,1.0,1.0,96,0.00,,,0.03,Wunderground v.1.15,2013-08-12 23:53:00,
2013-08-12 19:54:00,72.5,71.3,29.94,West,267,0.0,1.0,96,0.00,,,0.03,Wunderground v.1.15,2013-08-12 23:54:00,
2013-08-12 19:56:00,72.4,70.9,29.94,North,11,1.0,2.0,95,0.00,,,0.03,Wunderground v.1.15,2013-08-12 23:56:00,
2013-08-12 19:57:00,72.4,70.9,29.94,North,11,1.0,2.0,95,0.00,,,0.03,Wunderground v.1.15,2013-08-12 23:57:00,
2013-08-12 19:58:00,72.4,70.9,29.94,North,11,0.0,2.0,95,0.00,,,0.03,Wunderground v.1.15,2013-08-12 23:58:00,
2013-08-12 20:00:00,72.4,70.9,29.94,North,11,1.0,1.0,95,0.00,,,0.03,Wunderground v.1.15,2013-08-13 00:00:00,
2013-08-12 20:01:00,72.4,70.9,29.94,North,11,0.0,1.0,95,0.00,,,0.03,Wunderground v.1.15,2013-08-13 00:01:00,
2013-08-12 20:02:00,72.5,71.0,29.95,North,10,0.0,1.0,95,0.00,,,0.03,Wunderground v.1.15,2013-08-13 00:02:00,
2013-08-12 20:03:00,72.4,70.9,29.95,North,11,0.0,1.0,95,0.00,,,0.03,Wunderground v.1.15,2013-08-13 00:03:00,
2013-08-12 20:05:00,72.5,71.3,29.94,North,11,1.0,1.0,96,0.00,,,0.03,Wunderground v.1.15,2013-08-13 00:05:00,
2013-08-12 20:06:00,72.5,71.3,29.94,North,7,1.0,2.0,96,0.00,,,0.03,Wunderground v.1.15,2013-08-13 00:06:00,
2013-08-12 20:07:00,72.4,70.9,29.94,North,8,0.0,2.0,95,0.00,,,0.03,Wunderground v.1.15,2013-08-13 00:07:00,
2013-08-12 20:08:00,72.4,70.9,29.94,North,7,0.0,2.0,95,0.00,,,0.03,Wunderground v.1.15,2013-08-13 00:08:00,
2013-08-12 20:10:00,72.3,71.1,29.94,North,8,0.0,0.0,96,0.00,,,0.03,Wunderground v.1.15,2013-08-13 00:10:00,
2013-08-12 20:12:00,72.3,71.1,29.95,North,9,1.0,1.0,96,0.00,,,0.03,Wunderground v.1.15,2013-08-13 00:12:00,
2013-08-12 20:13:00,72.3,71.1,29.95,North,9,0.0,1.0,96,0.00,,,0.03,Wunderground v.1.15,2013-08-13 00:13:00,
2013-08-12 20:14:00,72.3,71.1,29.95,North,9,0.0,1.0,96,0.00,,,0.03,Wunderground v.1.15,2013-08-13 00:14:00,
2013-08-12 20:15:00,72.3,71.1,29.95,North,9,0.0,1.0,96,0.00,,,0.03,Wunderground v.1.15,2013-08-13 00:15:00,
2013-08-12 20:17:00,72.3,71.1,29.95,North,8,0.0,1.0,96,0.00,,,0.03,Wunderground v.1.15,2013-08-13 00:17:00,
2013-08-12 20:18:00,72.2,71.0,29.95,North,8,0.0,1.0,96,0.00,,,0.03,Wunderground v.1.15,2013-08-13 00:18:00,
2013-08-12 20:19:00,72.2,71.0,29.95,North,8,0.0,1.0,96,0.00,,,0.03,Wunderground v.1.15,2013-08-13 00:19:00,
2013-08-12 20:20:00,72.2,71.0,29.95,North,9,0.0,0.0,96,0.00,,,0.03,Wunderground v.1.15,2013-08-13 00:20:00,
2013-08-12 20:22:00,72.2,71.0,29.95,North,9,0.0,0.0,96,0.00,,,0.03,Wunderground v.1.15,2013-08-13 00:22:00,
2013-08-12 20:23:00,72.2,71.0,29.95,North,9,0.0,0.0,96,0.00,,,0.03,Wunderground v.1.15,2013-08-13 00:23:00,
2013-08-12 20:24:00,72.1,70.9,29.95,North,9,0.0,0.0,96,0.00,,,0.03,Wunderground v.1.15,2013-08-13 00:24:00,
2013-08-12 20:25:00,72.2,71.0,29.95,North,9,0.0,0.0,96,0.00,,,0.03,Wunderground v.1.15,2013-08-13 00:25:00,
2013-08-12 20:26:00,72.2,71.0,29.95,North,8,0.0,0.0,96,0.00,,,0.03,Wunderground v.1.15,2013-08-13 00:26:00,
2013-08-12 20:27:00,72.1,70.9,29.95,North,9,0.0,0.0,96,0.00,,,0.03,Wunderground v.1.15,2013-08-13 00:27:00,
2013-08-12 20:28:00,72.1,70.9,29.95,North,8,0.0,0.0,96,0.00,,,0.03,Wunderground v.1.15,2013-08-13 00:28:00,
2013-08-12 20:30:00,72.1,70.9,29.95,North,9,0.0,0.0,96,0.00,,,0.03,Wunderground v.1.15,2013-08-13 00:30:00,
2013-08-12 20:31:00,72.1,70.9,29.95,North,8,0.0,0.0,96,0.00,,,0.03,Wunderground v.1.15,2013-08-13 00:31:00,
2013-08-12 20:33:00,72.1,70.9,29.95,North,9,0.0,0.0,96,0.00,,,0.03,Wunderground v.1.15,2013-08-13 00:33:00,
2013-08-12 20:35:00,72.0,70.8,29.95,North,9,0.0,0.0,96,0.00,,,0.03,Wunderground v.1.15,2013-08-13 00:35:00,
2013-08-12 20:36:00,72.1,70.9,29.94,North,9,0.0,0.0,96,0.00,,,0.03,Wunderground v.1.15,2013-08-13 00:36:00,
2013-08-12 20:38:00,72.0,71.1,29.94,North,9,0.0,0.0,97,0.00,,,0.03,Wunderground v.1.15,2013-08-13 00:38:00,
2013-08-12 20:40:00,72.1,71.2,29.94,North,8,0.0,0.0,97,0.00,,,0.03,Wunderground v.1.15,2013-08-13 00:40:00,
2013-08-12 20:41:00,72.0,71.1,29.94,North,8,0.0,0.0,97,0.00,,,0.03,Wunderground v.1.15,2013-08-13 00:41:00,
2013-08-12 20:44:00,72.0,71.1,29.94,North,8,0.0,0.0,97,0.00,,,0.03,Wunderground v.1.15,2013-08-13 00:44:00,
2013-08-12 20:45:00,72.0,71.1,29.94,North,8,0.0,0.0,97,0.00,,,0.03,Wunderground v.1.15,2013-08-13 00:45:00,
2013-08-12 20:46:00,72.0,71.1,29.94,North,8,0.0,0.0,97,0.00,,,0.03,Wunderground v.1.15,2013-08-13 00:46:00,
2013-08-12 20:49:00,71.9,71.0,29.94,North,9,0.0,0.0,97,0.00,,,0.03,Wunderground v.1.15,2013-08-13 00:49:00,
2013-08-12 20:50:00,71.9,71.0,29.94,North,8,0.0,0.0,97,0.00,,,0.03,Wunderground v.1.15,2013-08-13 00:50:00,
2013-08-12 20:51:00,71.9,71.0,29.94,North,8,0.0,0.0,97,0.00,,,0.03,Wunderground v.1.15,2013-08-13 00:51:00,
2013-08-12 20:55:00,71.8,70.9,29.94,North,9,0.0,1.0,97,0.00,,,0.03,Wunderground v.1.15,2013-08-13 00:55:00,
2013-08-12 20:57:00,71.7,70.8,29.94,North,8,0.0,1.0,97,0.00,,,0.03,Wunderground v.1.15,2013-08-13 00:57:00,
2013-08-12 21:00:00,71.6,70.7,29.94,North,8,0.0,0.0,97,0.00,,,0.03,Wunderground v.1.15,2013-08-13 01:00:00,
2013-08-12 21:03:00,71.6,70.7,29.94,North,8,0.0,0.0,97,0.00,,,0.03,Wunderground v.1.15,2013-08-13 01:03:00,
2013-08-12 21:05:00,71.6,70.7,29.94,North,7,0.0,0.0,97,0.00,,,0.03,Wunderground v.1.15,2013-08-13 01:05:00,
2013-08-12 21:08:00,71.5,70.6,29.94,North,8,0.0,0.0,97,0.00,,,0.03,Wunderground v.1.15,2013-08-13 01:08:00,
2013-08-12 21:10:00,71.5,70.6,29.94,North,7,0.0,0.0,97,0.00,,,0.03,Wunderground v.1.15,2013-08-13 01:10:00,
2013-08-12 21:11:00,71.4,70.5,29.94,North,9,0.0,0.0,97,0.00,,,0.03,Wunderground v.1.15,2013-08-13 01:11:00,
2013-08-12 21:14:00,71.4,70.5,29.94,North,8,0.0,0.0,97,0.00,,,0.03,Wunderground v.1.15,2013-08-13 01:14:00,
2013-08-12 21:15:00,71.3,70.4,29.94,North,8,0.0,0.0,97,0.00,,,0.03,Wunderground v.1.15,2013-08-13 01:15:00,
2013-08-12 21:16:00,71.3,70.4,29.94,North,7,0.0,0.0,97,0.00,,,0.03,Wunderground v.1.15,2013-08-13 01:16:00,
2013-08-12 21:19:00,71.3,70.4,29.94,North,8,0.0,0.0,97,0.00,,,0.03,Wunderground v.1.15,2013-08-13 01:19:00,
2013-08-12 21:20:00,71.2,70.3,29.94,North,9,0.0,0.0,97,0.00,,,0.03,Wunderground v.1.15,2013-08-13 01:20:00,
2013-08-12 21:21:00,71.2,70.3,29.94,North,9,0.0,0.0,97,0.00,,,0.03,Wunderground v.1.15,2013-08-13 01:21:00,
2013-08-12 21:25:00,71.2,70.3,29.95,North,7,0.0,0.0,97,0.00,,,0.03,Wunderground v.1.15,2013-08-13 01:25:00,
2013-08-12 21:26:00,71.2,70.3,29.94,North,8,1.0,1.0,97,0.00,,,0.03,Wunderground v.1.15,2013-08-13 01:26:00,
2013-08-12 21:27:00,71.2,70.3,29.94,North,8,0.0,1.0,97,0.00,,,0.03,Wunderground v.1.15,2013-08-13 01:27:00,
2013-08-12 21:31:00,71.2,70.6,29.95,North,7,0.0,0.0,98,0.00,,,0.03,Wunderground v.1.15,2013-08-13 01:31:00,
2013-08-12 21:32:00,71.2,70.6,29.95,North,7,0.0,0.0,98,0.00,,,0.03,Wunderground v.1.15,2013-08-13 01:32:00,
2013-08-12 21:36:00,71.2,70.6,29.95,North,8,0.0,0.0,98,0.00,,,0.03,Wunderground v.1.15,2013-08-13 01:36:00,
2013-08-12 21:37:00,71.2,70.6,29.95,North,7,0.0,0.0,98,0.00,,,0.03,Wunderground v.1.15,2013-08-13 01:37:00,
2013-08-12 21:41:00,71.1,70.5,29.95,North,8,0.0,0.0,98,0.00,,,0.03,Wunderground v.1.15,2013-08-13 01:41:00,
2013-08-12 21:42:00,71.1,70.5,29.95,North,8,0.0,0.0,98,0.00,,,0.03,Wunderground v.1.15,2013-08-13 01:42:00,
2013-08-12 21:46:00,71.1,70.5,29.96,North,7,0.0,0.0,98,0.00,,,0.03,Wunderground v.1.15,2013-08-13 01:46:00,
2013-08-12 21:47:00,71.1,70.5,29.96,North,7,0.0,0.0,98,0.00,,,0.03,Wunderground v.1.15,2013-08-13 01:47:00,
2013-08-12 21:51:00,71.0,70.4,29.96,North,7,0.0,0.0,98,0.00,,,0.03,Wunderground v.1.15,2013-08-13 01:51:00,
2013-08-12 21:52:00,71.0,70.4,29.96,North,8,0.0,0.0,98,0.00,,,0.03,Wunderground v.1.15,2013-08-13 01:52:00,
2013-08-12 21:56:00,71.0,70.4,29.96,North,8,0.0,0.0,98,0.00,,,0.03,Wunderground v.1.15,2013-08-13 01:56:00,
2013-08-12 21:57:00,71.0,70.4,29.96,North,7,0.0,0.0,98,0.00,,,0.03,Wunderground v.1.15,2013-08-13 01:57:00,
2013-08-12 22:01:00,71.0,70.4,29.96,North,7,0.0,0.0,98,0.00,,,0.03,Wunderground v.1.15,2013-08-13 02:01:00,
2013-08-12 22:02:00,71.1,70.5,29.96,North,7,0.0,0.0,98,0.00,,,0.03,Wunderground v.1.15,2013-08-13 02:02:00,
2013-08-12 22:03:00,71.0,70.4,29.96,North,7,0.0,0.0,98,0.00,,,0.03,Wunderground v.1.15,2013-08-13 02:03:00,
2013-08-12 22:06:00,71.0,70.4,29.96,North,7,0.0,0.0,98,0.00,,,0.03,Wunderground v.1.15,2013-08-13 02:06:00,
2013-08-12 22:07:00,71.0,70.4,29.96,North,8,0.0,0.0,98,0.00,,,0.03,Wunderground v.1.15,2013-08-13 02:07:00,
2013-08-12 22:08:00,71.0,70.4,29.96,North,8,0.0,0.0,98,0.00,,,0.03,Wunderground v.1.15,2013-08-13 02:08:00,
2013-08-12 22:11:00,71.0,70.4,29.97,North,8,0.0,0.0,98,0.00,,,0.03,Wunderground v.1.15,2013-08-13 02:11:00,
2013-08-12 22:12:00,71.0,70.4,29.96,North,7,0.0,0.0,98,0.00,,,0.03,Wunderground v.1.15,2013-08-13 02:12:00,
2013-08-12 22:13:00,71.0,70.4,29.96,North,7,0.0,0.0,98,0.00,,,0.03,Wunderground v.1.15,2013-08-13 02:13:00,
2013-08-12 22:17:00,71.0,70.4,29.97,North,7,0.0,0.0,98,0.00,,,0.03,Wunderground v.1.15,2013-08-13 02:17:00,
2013-08-12 22:18:00,71.0,70.4,29.96,North,8,0.0,0.0,98,0.00,,,0.03,Wunderground v.1.15,2013-08-13 02:18:00,
2013-08-12 22:22:00,71.0,70.4,29.96,North,7,0.0,0.0,98,0.00,,,0.03,Wunderground v.1.15,2013-08-13 02:22:00,
2013-08-12 22:23:00,71.0,70.4,29.96,North,8,0.0,0.0,98,0.00,,,0.03,Wunderground v.1.15,2013-08-13 02:23:00,
2013-08-12 22:27:00,71.0,70.4,29.96,North,7,0.0,0.0,98,0.00,,,0.03,Wunderground v.1.15,2013-08-13 02:27:00,
2013-08-12 22:28:00,71.0,70.4,29.96,North,8,0.0,1.0,98,0.00,,,0.03,Wunderground v.1.15,2013-08-13 02:28:00,
2013-08-12 22:29:00,71.0,70.4,29.96,North,8,0.0,1.0,98,0.00,,,0.03,Wunderground v.1.15,2013-08-13 02:29:00,
2013-08-12 22:32:00,71.1,70.5,29.96,North,7,0.0,0.0,98,0.00,,,0.03,Wunderground v.1.15,2013-08-13 02:32:00,
2013-08-12 22:33:00,71.1,70.5,29.96,North,7,0.0,0.0,98,0.00,,,0.03,Wunderground v.1.15,2013-08-13 02:33:00,
2013-08-12 22:34:00,71.2,70.6,29.96,North,7,0.0,0.0,98,0.00,,,0.03,Wunderground v.1.15,2013-08-13 02:34:00,
2013-08-12 22:38:00,71.2,70.6,29.96,North,7,0.0,0.0,98,0.00,,,0.03,Wunderground v.1.15,2013-08-13 02:38:00,
2013-08-12 22:39:00,71.2,70.6,29.96,North,8,0.0,0.0,98,0.00,,,0.03,Wunderground v.1.15,2013-08-13 02:39:00,
2013-08-12 22:40:00,71.2,70.6,29.96,North,8,0.0,0.0,98,0.00,,,0.03,Wunderground v.1.15,2013-08-13 02:40:00,
2013-08-12 22:43:00,71.2,70.6,29.95,North,7,0.0,0.0,98,0.00,,,0.03,Wunderground v.1.15,2013-08-13 02:43:00,
2013-08-12 22:44:00,71.3,70.7,29.95,North,7,0.0,0.0,98,0.00,,,0.03,Wunderground v.1.15,2013-08-13 02:44:00,
2013-08-12 22:45:00,71.2,70.6,29.95,North,7,0.0,0.0,98,0.00,,,0.03,Wunderground v.1.15,2013-08-13 02:45:00,
2013-08-12 22:48:00,71.2,70.6,29.95,North,8,0.0,0.0,98,0.00,,,0.03,Wunderground v.1.15,2013-08-13 02:48:00,
2013-08-12 22:49:00,71.2,70.6,29.95,North,7,0.0,0.0,98,0.00,,,0.03,Wunderground v.1.15,2013-08-13 02:49:00,
2013-08-12 22:50:00,71.2,70.6,29.95,North,7,0.0,0.0,98,0.00,,,0.03,Wunderground v.1.15,2013-08-13 02:50:00,
2013-08-12 22:53:00,71.2,70.6,29.95,North,7,0.0,0.0,98,0.00,,,0.03,Wunderground v.1.15,2013-08-13 02:53:00,
2013-08-12 22:54:00,71.2,70.6,29.95,North,7,0.0,0.0,98,0.00,,,0.03,Wunderground v.1.15,2013-08-13 02:54:00,
2013-08-12 22:55:00,71.2,70.6,29.95,North,7,0.0,0.0,98,0.00,,,0.03,Wunderground v.1.15,2013-08-13 02:55:00,
2013-08-12 22:58:00,71.1,70.5,29.95,North,8,0.0,0.0,98,0.00,,,0.03,Wunderground v.1.15,2013-08-13 02:58:00,
2013-08-12 22:59:00,71.2,70.6,29.95,North,8,0.0,0.0,98,0.00,,,0.03,Wunderground v.1.15,2013-08-13 02:59:00,
2013-08-12 23:00:00,71.1,70.5,29.95,North,8,0.0,0.0,98,0.00,,,0.03,Wunderground v.1.15,2013-08-13 03:00:00,
2013-08-12 23:04:00,71.1,70.5,29.95,North,7,0.0,0.0,98,0.00,,,0.03,Wunderground v.1.15,2013-08-13 03:04:00,
2013-08-12 23:05:00,71.0,70.4,29.95,North,7,0.0,0.0,98,0.00,,,0.03,Wunderground v.1.15,2013-08-13 03:05:00,
2013-08-12 23:09:00,71.0,70.4,29.94,North,8,0.0,0.0,98,0.00,,,0.03,Wunderground v.1.15,2013-08-13 03:09:00,
2013-08-12 23:10:00,71.0,70.4,29.94,North,7,0.0,0.0,98,0.00,,,0.03,Wunderground v.1.15,2013-08-13 03:10:00,
2013-08-12 23:11:00,71.0,70.4,29.94,North,7,0.0,0.0,98,0.00,,,0.03,Wunderground v.1.15,2013-08-13 03:11:00,
2013-08-12 23:14:00,71.0,70.4,29.94,North,8,0.0,0.0,98,0.00,,,0.03,Wunderground v.1.15,2013-08-13 03:14:00,
2013-08-12 23:15:00,71.0,70.4,29.94,North,7,0.0,0.0,98,0.00,,,0.03,Wunderground v.1.15,2013-08-13 03:15:00,
2013-08-12 23:16:00,71.0,70.4,29.94,North,8,0.0,0.0,98,0.00,,,0.03,Wunderground v.1.15,2013-08-13 03:16:00,
2013-08-12 23:20:00,70.9,70.3,29.95,North,7,0.0,0.0,98,0.00,,,0.03,Wunderground v.1.15,2013-08-13 03:20:00,
2013-08-12 23:21:00,70.9,70.3,29.95,North,7,0.0,0.0,98,0.00,,,0.03,Wunderground v.1.15,2013-08-13 03:21:00,
2013-08-12 23:25:00,71.0,70.7,29.95,North,8,0.0,0.0,99,0.00,,,0.03,Wunderground v.1.15,2013-08-13 03:25:00,
2013-08-12 23:26:00,71.0,70.7,29.95,North,8,0.0,0.0,99,0.00,,,0.03,Wunderground v.1.15,2013-08-13 03:26:00,
2013-08-12 23:30:00,71.0,70.7,29.94,North,7,0.0,0.0,99,0.00,,,0.03,Wunderground v.1.15,2013-08-13 03:30:00,
2013-08-12 23:31:00,71.0,70.7,29.94,North,7,0.0,0.0,99,0.00,,,0.03,Wunderground v.1.15,2013-08-13 03:31:00,
2013-08-12 23:35:00,71.0,70.4,29.94,North,7,0.0,0.0,98,0.00,,,0.03,Wunderground v.1.15,2013-08-13 03:35:00,
2013-08-12 23:36:00,71.0,70.4,29.94,North,7,0.0,0.0,98,0.00,,,0.03,Wunderground v.1.15,2013-08-13 03:36:00,
2013-08-12 23:40:00,70.8,70.2,29.94,North,7,0.0,0.0,98,0.00,,,0.03,Wunderground v.1.15,2013-08-13 03:40:00,
2013-08-12 23:41:00,70.8,70.2,29.94,North,7,0.0,0.0,98,0.00,,,0.03,Wunderground v.1.15,2013-08-13 03:41:00,
2013-08-12 23:42:00,70.8,70.2,29.94,North,8,0.0,0.0,98,0.00,,,0.03,Wunderground v.1.15,2013-08-13 03:42:00,
2013-08-12 23:45:00,70.7,70.1,29.94,North,7,0.0,0.0,98,0.00,,,0.03,Wunderground v.1.15,2013-08-13 03:45:00,
2013-08-12 23:46:00,70.7,70.1,29.94,North,7,0.0,0.0,98,0.00,,,0.03,Wunderground v.1.15,2013-08-13 03:46:00,
2013-08-12 23:47:00,70.7,70.1,29.93,North,8,0.0,0.0,98,0.00,,,0.03,Wunderground v.1.15,2013-08-13 03:47:00,
2013-08-12 23:53:00,70.5,69.9,29.94,North,7,0.0,0.0,98,0.00,,,0.03,Wunderground v.1.15,2013-08-13 03:53:00,
2013-08-12 23:58:00,70.5,70.2,29.93,North,7,0.0,0.0,99,0.00,,,0.03,Wunderground v.1.15,2013-08-13 03:58:00,
2013-08-12 23:59:00,70.5,70.2,29.93,North,8,0.0,0.0,99,0.00,,,0.03,Wunderground v.1.15,2013-08-13 03:59:00,